Time,TemperatureF,DewpointF,PressureIn,WindDirection,WindDirectionDegrees,WindSpeedMPH,WindSpeedGustMPH,Humidity,HourlyPrecipIn,Conditions,Clouds,dailyrainin,SoftwareType,DateUTC
2013-01-20 00:00:00,41.3,34.6,30.12,South,190,0.0,2.0,77,0.00,,,0.00,Wunderground v.1.15,2013-01-20 05:00:00,
2013-01-20 00:03:00,41.2,34.5,30.11,SSW,198,1.0,1.0,77,0.00,,,0.00,Wunderground v.1.15,2013-01-20 05:03:00,
2013-01-20 00:05:00,41.2,34.5,30.12,SSW,208,1.0,1.0,77,0.00,,,0.00,Wunderground v.1.15,2013-01-20 05:05:00,
2013-01-20 00:07:00,41.2,34.5,30.11,SSW,207,1.0,1.0,77,0.00,,,0.00,Wunderground v.1.15,2013-01-20 05:07:00,
2013-01-20 00:09:00,41.3,34.6,30.11,SSW,201,1.0,1.0,77,0.00,,,0.00,Wunderground v.1.15,2013-01-20 05:09:00,
2013-01-20 00:10:00,41.3,34.6,30.11,SSW,203,1.0,1.0,77,0.00,,,0.00,Wunderground v.1.15,2013-01-20 05:10:00,
2013-01-20 00:13:00,41.3,34.6,30.12,SSW,203,0.0,1.0,77,0.00,,,0.00,Wunderground v.1.15,2013-01-20 05:13:00,
2013-01-20 00:16:00,41.2,34.5,30.12,SSW,203,0.0,1.0,77,0.00,,,0.00,Wunderground v.1.15,2013-01-20 05:16:00,
2013-01-20 00:19:00,41.1,34.8,30.11,SSW,203,0.0,1.0,78,0.00,,,0.00,Wunderground v.1.15,2013-01-20 05:19:00,
2013-01-20 00:22:00,41.0,34.7,30.11,SSW,203,0.0,1.0,78,0.00,,,0.00,Wunderground v.1.15,2013-01-20 05:22:00,
2013-01-20 00:23:00,40.9,34.6,30.11,SSW,203,0.0,1.0,78,0.00,,,0.00,Wunderground v.1.15,2013-01-20 05:23:00,
2013-01-20 00:24:00,40.9,34.6,30.11,SSW,203,0.0,1.0,78,0.00,,,0.00,Wunderground v.1.15,2013-01-20 05:24:00,
2013-01-20 00:27:00,40.9,34.6,30.11,SSW,203,0.0,1.0,78,0.00,,,0.00,Wunderground v.1.15,2013-01-20 05:27:00,
2013-01-20 00:31:00,40.8,34.8,30.11,SSW,203,0.0,0.0,79,0.00,,,0.00,Wunderground v.1.15,2013-01-20 05:31:00,
2013-01-20 00:32:00,40.8,34.8,30.11,SSW,203,0.0,0.0,79,0.00,,,0.00,Wunderground v.1.15,2013-01-20 05:32:00,
2013-01-20 00:33:00,40.7,34.7,30.11,SSW,203,0.0,0.0,79,0.00,,,0.00,Wunderground v.1.15,2013-01-20 05:33:00,
2013-01-20 00:36:00,40.7,34.7,30.11,SSW,203,0.0,0.0,79,0.00,,,0.00,Wunderground v.1.15,2013-01-20 05:36:00,
2013-01-20 00:37:00,40.6,34.6,30.11,SSW,203,0.0,0.0,79,0.00,,,0.00,Wunderground v.1.15,2013-01-20 05:37:00,
2013-01-20 00:41:00,40.4,34.4,30.11,SSW,203,0.0,0.0,79,0.00,,,0.00,Wunderground v.1.15,2013-01-20 05:41:00,
2013-01-20 00:42:00,40.4,34.7,30.11,SSW,203,0.0,0.0,80,0.00,,,0.00,Wunderground v.1.15,2013-01-20 05:42:00,
2013-01-20 00:45:00,40.3,34.6,30.11,SSW,203,0.0,0.0,80,0.00,,,0.00,Wunderground v.1.15,2013-01-20 05:45:00,
2013-01-20 00:46:00,40.3,34.6,30.11,SSW,203,0.0,0.0,80,0.00,,,0.00,Wunderground v.1.15,2013-01-20 05:46:00,
2013-01-20 00:47:00,40.2,34.5,30.11,SSW,203,0.0,0.0,80,0.00,,,0.00,Wunderground v.1.15,2013-01-20 05:47:00,
2013-01-20 00:50:00,40.0,34.3,30.11,SSW,203,0.0,0.0,80,0.00,,,0.00,Wunderground v.1.15,2013-01-20 05:50:00,
2013-01-20 00:51:00,39.9,34.2,30.11,SSW,203,0.0,0.0,80,0.00,,,0.00,Wunderground v.1.15,2013-01-20 05:51:00,
2013-01-20 00:55:00,39.6,34.2,30.10,SSW,203,0.0,0.0,81,0.00,,,0.00,Wunderground v.1.15,2013-01-20 05:55:00,
2013-01-20 00:56:00,39.6,34.2,30.10,SSW,203,0.0,0.0,81,0.00,,,0.00,Wunderground v.1.15,2013-01-20 05:56:00,
2013-01-20 01:00:00,39.7,34.3,30.10,SSW,203,0.0,0.0,81,0.00,,,0.00,Wunderground v.1.15,2013-01-20 06:00:00,
2013-01-20 01:01:00,39.8,34.4,30.10,SSW,203,0.0,0.0,81,0.00,,,0.00,Wunderground v.1.15,2013-01-20 06:01:00,
2013-01-20 01:04:00,39.9,34.5,30.10,SSW,203,0.0,0.0,81,0.00,,,0.00,Wunderground v.1.15,2013-01-20 06:04:00,
2013-01-20 01:06:00,39.9,34.5,30.10,SSW,203,0.0,0.0,81,0.00,,,0.00,Wunderground v.1.15,2013-01-20 06:06:00,
2013-01-20 01:09:00,39.8,34.4,30.10,SSW,203,0.0,0.0,81,0.00,,,0.00,Wunderground v.1.15,2013-01-20 06:09:00,
2013-01-20 01:12:00,39.7,34.3,30.10,SSW,203,0.0,0.0,81,0.00,,,0.00,Wunderground v.1.15,2013-01-20 06:12:00,
2013-01-20 01:13:00,39.7,34.3,30.10,SSW,203,0.0,0.0,81,0.00,,,0.00,Wunderground v.1.15,2013-01-20 06:13:00,
2013-01-20 01:15:00,39.6,34.2,30.10,SSW,203,0.0,0.0,81,0.00,,,0.00,Wunderground v.1.15,2013-01-20 06:15:00,
2013-01-20 01:17:00,39.5,34.2,30.10,SSW,203,0.0,0.0,81,0.00,,,0.00,Wunderground v.1.15,2013-01-20 06:17:00,
2013-01-20 01:21:00,39.3,34.3,30.10,SSW,203,0.0,0.0,82,0.00,,,0.00,Wunderground v.1.15,2013-01-20 06:21:00,
2013-01-20 01:24:00,39.2,34.2,30.10,SSW,203,0.0,0.0,82,0.00,,,0.00,Wunderground v.1.15,2013-01-20 06:24:00,
2013-01-20 01:29:00,39.3,34.6,30.10,SSW,203,0.0,0.0,83,0.00,,,0.00,Wunderground v.1.15,2013-01-20 06:29:00,
2013-01-20 01:30:00,39.3,34.3,30.10,SSW,203,0.0,0.0,82,0.00,,,0.00,Wunderground v.1.15,2013-01-20 06:30:00,
2013-01-20 01:32:00,39.3,34.3,30.10,SSW,203,0.0,0.0,82,0.00,,,0.00,Wunderground v.1.15,2013-01-20 06:32:00,
2013-01-20 01:37:00,39.4,34.4,30.10,SSW,203,0.0,0.0,82,0.00,,,0.00,Wunderground v.1.15,2013-01-20 06:37:00,
2013-01-20 01:40:00,39.3,34.3,30.10,SSW,203,0.0,0.0,82,0.00,,,0.00,Wunderground v.1.15,2013-01-20 06:40:00,
2013-01-20 01:41:00,39.3,34.3,30.10,SSW,203,0.0,0.0,82,0.00,,,0.00,Wunderground v.1.15,2013-01-20 06:41:00,
2013-01-20 01:42:00,39.3,34.3,30.10,SSW,203,0.0,0.0,82,0.00,,,0.00,Wunderground v.1.15,2013-01-20 06:42:00,
2013-01-20 01:47:00,39.3,34.3,30.10,SSW,203,0.0,0.0,82,0.00,,,0.00,Wunderground v.1.15,2013-01-20 06:47:00,
2013-01-20 01:48:00,39.3,34.3,30.10,SSW,203,0.0,0.0,82,0.00,,,0.00,Wunderground v.1.15,2013-01-20 06:48:00,
2013-01-20 01:51:00,39.4,34.4,30.10,SSW,203,0.0,0.0,82,0.00,,,0.00,Wunderground v.1.15,2013-01-20 06:51:00,
2013-01-20 01:54:00,39.5,34.5,30.10,SSW,203,0.0,0.0,82,0.00,,,0.00,Wunderground v.1.15,2013-01-20 06:54:00,
2013-01-20 01:58:00,39.5,34.5,30.10,SSW,203,0.0,0.0,82,0.00,,,0.00,Wunderground v.1.15,2013-01-20 06:58:00,
2013-01-20 02:00:00,39.5,34.5,30.10,SSW,203,1.0,1.0,82,0.00,,,0.00,Wunderground v.1.15,2013-01-20 07:00:00,
2013-01-20 02:01:00,39.6,34.6,30.10,SSW,200,1.0,1.0,82,0.00,,,0.00,Wunderground v.1.15,2013-01-20 07:01:00,
2013-01-20 02:03:00,39.7,34.7,30.10,SSW,200,0.0,1.0,82,0.00,,,0.00,Wunderground v.1.15,2013-01-20 07:03:00,
2013-01-20 02:05:00,39.8,34.8,30.10,SSW,200,0.0,1.0,82,0.00,,,0.00,Wunderground v.1.15,2013-01-20 07:05:00,
2013-01-20 02:06:00,39.9,34.9,30.10,SSW,200,0.0,1.0,82,0.00,,,0.00,Wunderground v.1.15,2013-01-20 07:06:00,
2013-01-20 02:08:00,39.8,34.4,30.10,SSW,200,0.0,1.0,81,0.00,,,0.00,Wunderground v.1.15,2013-01-20 07:08:00,
2013-01-20 02:10:00,39.8,34.4,30.10,SSW,200,0.0,0.0,81,0.00,,,0.00,Wunderground v.1.15,2013-01-20 07:10:00,
2013-01-20 02:11:00,39.8,34.8,30.09,SSW,200,1.0,1.0,82,0.00,,,0.00,Wunderground v.1.15,2013-01-20 07:11:00,
2013-01-20 02:13:00,39.9,34.9,30.09,SSW,201,1.0,2.0,82,0.00,,,0.00,Wunderground v.1.15,2013-01-20 07:13:00,
2013-01-20 02:15:00,40.0,34.6,30.09,SSW,201,0.0,2.0,81,0.00,,,0.00,Wunderground v.1.15,2013-01-20 07:15:00,
2013-01-20 02:16:00,40.0,34.6,30.09,SSW,205,1.0,2.0,81,0.00,,,0.00,Wunderground v.1.15,2013-01-20 07:16:00,
2013-01-20 02:17:00,40.0,34.6,30.09,SSW,205,0.0,2.0,81,0.00,,,0.00,Wunderground v.1.15,2013-01-20 07:17:00,
2013-01-20 02:19:00,40.1,34.7,30.09,SSW,205,1.0,2.0,81,0.00,,,0.00,Wunderground v.1.15,2013-01-20 07:19:00,
2013-01-20 02:20:00,40.1,34.7,30.09,SSW,205,0.0,1.0,81,0.00,,,0.00,Wunderground v.1.15,2013-01-20 07:20:00,
2013-01-20 02:21:00,40.1,34.7,30.09,SSW,205,1.0,1.0,81,0.00,,,0.00,Wunderground v.1.15,2013-01-20 07:21:00,
2013-01-20 02:22:00,40.1,34.7,30.09,SSW,205,0.0,1.0,81,0.00,,,0.00,Wunderground v.1.15,2013-01-20 07:22:00,
2013-01-20 02:24:00,40.2,34.8,30.09,SSW,203,1.0,1.0,81,0.00,,,0.00,Wunderground v.1.15,2013-01-20 07:24:00,
2013-01-20 02:26:00,40.2,34.8,30.09,SSW,197,1.0,2.0,81,0.00,,,0.00,Wunderground v.1.15,2013-01-20 07:26:00,
2013-01-20 02:27:00,40.3,34.9,30.09,SSW,197,1.0,2.0,81,0.00,,,0.00,Wunderground v.1.15,2013-01-20 07:27:00,
2013-01-20 02:29:00,40.3,34.9,30.09,SSW,198,1.0,2.0,81,0.00,,,0.00,Wunderground v.1.15,2013-01-20 07:29:00,
2013-01-20 02:31:00,40.3,34.9,30.08,SSW,210,0.0,1.0,81,0.00,,,0.00,Wunderground v.1.15,2013-01-20 07:31:00,
2013-01-20 02:32:00,40.4,35.0,30.08,SSE,167,1.0,3.0,81,0.00,,,0.00,Wunderground v.1.15,2013-01-20 07:32:00,
2013-01-20 02:34:00,40.4,34.7,30.09,SSW,200,1.0,3.0,80,0.00,,,0.00,Wunderground v.1.15,2013-01-20 07:34:00,
2013-01-20 02:36:00,40.5,34.8,30.08,South,171,1.0,3.0,80,0.00,,,0.00,Wunderground v.1.15,2013-01-20 07:36:00,
2013-01-20 02:37:00,40.5,34.8,30.08,SSW,203,1.0,3.0,80,0.00,,,0.00,Wunderground v.1.15,2013-01-20 07:37:00,
2013-01-20 02:38:00,40.6,34.9,30.08,South,187,1.0,3.0,80,0.00,,,0.00,Wunderground v.1.15,2013-01-20 07:38:00,
2013-01-20 02:39:00,40.6,34.9,30.08,SSW,198,0.0,3.0,80,0.00,,,0.00,Wunderground v.1.15,2013-01-20 07:39:00,
2013-01-20 02:41:00,40.6,34.9,30.08,SSW,198,0.0,1.0,80,0.00,,,0.00,Wunderground v.1.15,2013-01-20 07:41:00,
2013-01-20 02:42:00,40.6,34.9,30.08,SSW,207,1.0,2.0,80,0.00,,,0.00,Wunderground v.1.15,2013-01-20 07:42:00,
2013-01-20 02:43:00,40.6,34.9,30.08,SSW,207,1.0,2.0,80,0.00,,,0.00,Wunderground v.1.15,2013-01-20 07:43:00,
2013-01-20 02:44:00,40.5,34.8,30.08,SSW,203,1.0,2.0,80,0.00,,,0.00,Wunderground v.1.15,2013-01-20 07:44:00,
2013-01-20 02:46:00,40.5,34.8,30.08,SSW,195,1.0,2.0,80,0.00,,,0.00,Wunderground v.1.15,2013-01-20 07:46:00,
2013-01-20 02:47:00,40.5,34.8,30.08,SSW,195,1.0,2.0,80,0.00,,,0.00,Wunderground v.1.15,2013-01-20 07:47:00,
2013-01-20 02:48:00,40.5,34.8,30.08,SSW,195,1.0,2.0,80,0.00,,,0.00,Wunderground v.1.15,2013-01-20 07:48:00,
2013-01-20 02:49:00,40.5,34.8,30.08,SSW,208,1.0,2.0,80,0.00,,,0.00,Wunderground v.1.15,2013-01-20 07:49:00,
2013-01-20 02:51:00,40.4,34.7,30.08,SSW,208,0.0,1.0,80,0.00,,,0.00,Wunderground v.1.15,2013-01-20 07:51:00,
2013-01-20 02:52:00,40.4,34.7,30.08,SSW,208,0.0,1.0,80,0.00,,,0.00,Wunderground v.1.15,2013-01-20 07:52:00,
2013-01-20 02:54:00,40.4,34.7,30.08,SSW,208,0.0,1.0,80,0.00,,,0.00,Wunderground v.1.15,2013-01-20 07:54:00,
2013-01-20 02:56:00,40.3,34.9,30.08,SSW,208,0.0,1.0,81,0.00,,,0.00,Wunderground v.1.15,2013-01-20 07:56:00,
2013-01-20 02:57:00,40.2,34.8,30.08,SSW,208,0.0,1.0,81,0.00,,,0.00,Wunderground v.1.15,2013-01-20 07:57:00,
2013-01-20 02:59:00,40.1,34.7,30.08,SSW,208,0.0,1.0,81,0.00,,,0.00,Wunderground v.1.15,2013-01-20 07:59:00,
2013-01-20 03:01:00,40.1,34.7,30.08,SSW,209,0.0,0.0,81,0.00,,,0.00,Wunderground v.1.15,2013-01-20 08:01:00,
2013-01-20 03:03:00,40.0,34.6,30.08,SSW,208,0.0,0.0,81,0.00,,,0.00,Wunderground v.1.15,2013-01-20 08:03:00,
2013-01-20 03:04:00,40.0,34.6,30.08,SSW,209,0.0,0.0,81,0.00,,,0.00,Wunderground v.1.15,2013-01-20 08:04:00,
2013-01-20 03:05:00,39.9,34.5,30.08,SSW,208,0.0,1.0,81,0.00,,,0.00,Wunderground v.1.15,2013-01-20 08:05:00,
2013-01-20 03:06:00,39.9,34.5,30.08,SSW,209,1.0,1.0,81,0.00,,,0.00,Wunderground v.1.15,2013-01-20 08:06:00,
2013-01-20 03:08:00,39.8,34.4,30.08,SSW,208,1.0,1.0,81,0.00,,,0.00,Wunderground v.1.15,2013-01-20 08:08:00,
2013-01-20 03:09:00,39.8,34.4,30.08,SSW,210,1.0,1.0,81,0.00,,,0.00,Wunderground v.1.15,2013-01-20 08:09:00,
2013-01-20 03:10:00,39.8,34.4,30.08,SSW,208,0.0,0.0,81,0.00,,,0.00,Wunderground v.1.15,2013-01-20 08:10:00,
2013-01-20 03:11:00,39.8,34.4,30.08,SSW,209,0.0,1.0,81,0.00,,,0.00,Wunderground v.1.15,2013-01-20 08:11:00,
2013-01-20 03:13:00,39.7,34.3,30.08,SSW,198,0.0,1.0,81,0.00,,,0.00,Wunderground v.1.15,2013-01-20 08:13:00,
2013-01-20 03:14:00,39.8,34.4,30.08,SSW,198,0.0,1.0,81,0.00,,,0.00,Wunderground v.1.15,2013-01-20 08:14:00,
2013-01-20 03:15:00,39.7,34.3,30.08,SSW,198,0.0,1.0,81,0.00,,,0.00,Wunderground v.1.15,2013-01-20 08:15:00,
2013-01-20 03:16:00,39.7,34.7,30.08,SSW,198,1.0,1.0,82,0.00,,,0.00,Wunderground v.1.15,2013-01-20 08:16:00,
2013-01-20 03:18:00,39.7,34.7,30.07,SSW,198,0.0,1.0,82,0.00,,,0.00,Wunderground v.1.15,2013-01-20 08:18:00,
2013-01-20 03:19:00,39.7,34.7,30.07,SSW,198,0.0,1.0,82,0.00,,,0.00,Wunderground v.1.15,2013-01-20 08:19:00,
2013-01-20 03:20:00,39.7,34.7,30.08,SSW,198,0.0,0.0,82,0.00,,,0.00,Wunderground v.1.15,2013-01-20 08:20:00,
2013-01-20 03:21:00,39.7,34.7,30.08,SSW,198,0.0,0.0,82,0.00,,,0.00,Wunderground v.1.15,2013-01-20 08:21:00,
2013-01-20 03:24:00,39.7,34.7,30.07,SSW,198,0.0,1.0,82,0.00,,,0.00,Wunderground v.1.15,2013-01-20 08:24:00,
2013-01-20 03:25:00,39.7,34.7,30.07,SSW,198,0.0,1.0,82,0.00,,,0.00,Wunderground v.1.15,2013-01-20 08:25:00,
2013-01-20 03:26:00,39.6,34.6,30.07,SSW,198,0.0,1.0,82,0.00,,,0.00,Wunderground v.1.15,2013-01-20 08:26:00,
2013-01-20 03:29:00,39.6,34.6,30.07,SSW,201,0.0,2.0,82,0.00,,,0.00,Wunderground v.1.15,2013-01-20 08:29:00,
2013-01-20 03:30:00,39.6,34.6,30.07,SSW,201,0.0,1.0,82,0.00,,,0.00,Wunderground v.1.15,2013-01-20 08:30:00,
2013-01-20 03:32:00,39.6,34.6,30.07,SSW,201,1.0,1.0,82,0.00,,,0.00,Wunderground v.1.15,2013-01-20 08:32:00,
2013-01-20 03:34:00,39.6,34.6,30.07,SSW,201,1.0,1.0,82,0.00,,,0.00,Wunderground v.1.15,2013-01-20 08:34:00,
2013-01-20 03:35:00,39.7,34.7,30.07,SSW,207,1.0,2.0,82,0.00,,,0.00,Wunderground v.1.15,2013-01-20 08:35:00,
2013-01-20 03:37:00,39.7,34.7,30.07,SSW,207,1.0,2.0,82,0.00,,,0.00,Wunderground v.1.15,2013-01-20 08:37:00,
2013-01-20 03:39:00,39.7,34.7,30.07,SSW,207,1.0,2.0,82,0.00,,,0.00,Wunderground v.1.15,2013-01-20 08:39:00,
2013-01-20 03:40:00,39.7,34.7,30.07,SSW,207,0.0,1.0,82,0.00,,,0.00,Wunderground v.1.15,2013-01-20 08:40:00,
2013-01-20 03:41:00,39.7,34.7,30.07,SSW,207,1.0,1.0,82,0.00,,,0.00,Wunderground v.1.15,2013-01-20 08:41:00,
2013-01-20 03:42:00,39.7,34.7,30.07,SSW,207,1.0,1.0,82,0.00,,,0.00,Wunderground v.1.15,2013-01-20 08:42:00,
2013-01-20 03:44:00,39.7,34.7,30.06,SSW,203,1.0,2.0,82,0.00,,,0.00,Wunderground v.1.15,2013-01-20 08:44:00,
2013-01-20 03:45:00,39.8,34.4,30.06,SSW,203,0.0,2.0,81,0.00,,,0.00,Wunderground v.1.15,2013-01-20 08:45:00,
2013-01-20 03:46:00,39.8,34.4,30.06,SSW,203,0.0,2.0,81,0.00,,,0.00,Wunderground v.1.15,2013-01-20 08:46:00,
2013-01-20 03:47:00,39.8,34.4,30.06,SSW,203,1.0,2.0,81,0.00,,,0.00,Wunderground v.1.15,2013-01-20 08:47:00,
2013-01-20 03:50:00,39.8,34.4,30.06,SSW,203,0.0,1.0,81,0.00,,,0.00,Wunderground v.1.15,2013-01-20 08:50:00,
2013-01-20 03:51:00,39.8,34.4,30.06,SSW,201,1.0,1.0,81,0.00,,,0.00,Wunderground v.1.15,2013-01-20 08:51:00,
2013-01-20 03:52:00,39.8,34.4,30.06,South,190,1.0,2.0,81,0.00,,,0.00,Wunderground v.1.15,2013-01-20 08:52:00,
2013-01-20 03:55:00,39.9,34.5,30.06,SSW,203,0.0,2.0,81,0.00,,,0.00,Wunderground v.1.15,2013-01-20 08:55:00,
2013-01-20 03:56:00,39.9,34.5,30.06,SSW,203,0.0,2.0,81,0.00,,,0.00,Wunderground v.1.15,2013-01-20 08:56:00,
2013-01-20 03:57:00,39.9,34.5,30.06,SSW,205,2.0,2.0,81,0.00,,,0.00,Wunderground v.1.15,2013-01-20 08:57:00,
2013-01-20 04:00:00,39.9,34.5,30.06,SSW,205,0.0,1.0,81,0.00,,,0.00,Wunderground v.1.15,2013-01-20 09:00:00,
2013-01-20 04:01:00,39.9,34.5,30.06,SSW,205,0.0,1.0,81,0.00,,,0.00,Wunderground v.1.15,2013-01-20 09:01:00,
2013-01-20 04:02:00,39.9,34.5,30.06,SSW,205,0.0,1.0,81,0.00,,,0.00,Wunderground v.1.15,2013-01-20 09:02:00,
2013-01-20 04:05:00,39.9,34.5,30.06,SSW,205,1.0,1.0,81,0.00,,,0.00,Wunderground v.1.15,2013-01-20 09:05:00,
2013-01-20 04:06:00,39.8,34.4,30.06,SSW,205,1.0,1.0,81,0.00,,,0.00,Wunderground v.1.15,2013-01-20 09:06:00,
2013-01-20 04:07:00,39.8,34.4,30.06,SSW,205,1.0,1.0,81,0.00,,,0.00,Wunderground v.1.15,2013-01-20 09:07:00,
2013-01-20 04:08:00,39.8,34.4,30.06,SSW,201,1.0,1.0,81,0.00,,,0.00,Wunderground v.1.15,2013-01-20 09:08:00,
2013-01-20 04:10:00,39.8,34.4,30.06,SSW,207,1.0,1.0,81,0.00,,,0.00,Wunderground v.1.15,2013-01-20 09:10:00,
2013-01-20 04:12:00,39.8,34.4,30.06,SSW,207,0.0,1.0,81,0.00,,,0.00,Wunderground v.1.15,2013-01-20 09:12:00,
2013-01-20 04:13:00,39.8,34.4,30.06,SSW,207,1.0,1.0,81,0.00,,,0.00,Wunderground v.1.15,2013-01-20 09:13:00,
2013-01-20 04:15:00,39.8,34.4,30.06,SSW,207,1.0,1.0,81,0.00,,,0.00,Wunderground v.1.15,2013-01-20 09:15:00,
2013-01-20 04:17:00,39.8,34.4,30.06,SSW,205,2.0,2.0,81,0.00,,,0.00,Wunderground v.1.15,2013-01-20 09:17:00,
2013-01-20 04:18:00,39.8,34.4,30.06,SSW,195,1.0,2.0,81,0.00,,,0.00,Wunderground v.1.15,2013-01-20 09:18:00,
2013-01-20 04:20:00,39.9,34.2,30.06,SSW,200,1.0,1.0,80,0.00,,,0.00,Wunderground v.1.15,2013-01-20 09:20:00,
2013-01-20 04:22:00,39.9,34.2,30.06,SSW,197,2.0,2.0,80,0.00,,,0.00,Wunderground v.1.15,2013-01-20 09:22:00,
2013-01-20 04:23:00,40.0,34.3,30.06,SW,214,1.0,2.0,80,0.00,,,0.00,Wunderground v.1.15,2013-01-20 09:23:00,
2013-01-20 04:25:00,40.0,34.3,30.06,SSW,203,1.0,2.0,80,0.00,,,0.00,Wunderground v.1.15,2013-01-20 09:25:00,
2013-01-20 04:27:00,39.9,34.2,30.06,SSW,203,0.0,2.0,80,0.00,,,0.00,Wunderground v.1.15,2013-01-20 09:27:00,
2013-01-20 04:28:00,39.9,34.2,30.06,SSW,203,0.0,2.0,80,0.00,,,0.00,Wunderground v.1.15,2013-01-20 09:28:00,
2013-01-20 04:31:00,39.8,34.1,30.06,SSW,203,1.0,1.0,80,0.00,,,0.00,Wunderground v.1.15,2013-01-20 09:31:00,
2013-01-20 04:32:00,39.8,34.1,30.06,SSW,203,1.0,1.0,80,0.00,,,0.00,Wunderground v.1.15,2013-01-20 09:32:00,
2013-01-20 04:33:00,39.7,34.0,30.06,SSW,203,1.0,1.0,80,0.00,,,0.00,Wunderground v.1.15,2013-01-20 09:33:00,
2013-01-20 04:34:00,39.7,34.0,30.06,SSW,203,0.0,1.0,80,0.00,,,0.00,Wunderground v.1.15,2013-01-20 09:34:00,
2013-01-20 04:36:00,39.7,34.0,30.05,SSW,206,0.0,1.0,80,0.00,,,0.00,Wunderground v.1.15,2013-01-20 09:36:00,
2013-01-20 04:38:00,39.6,33.9,30.06,SSW,205,1.0,1.0,80,0.00,,,0.00,Wunderground v.1.15,2013-01-20 09:38:00,
2013-01-20 04:39:00,39.6,33.9,30.05,SSW,205,1.0,1.0,80,0.00,,,0.00,Wunderground v.1.15,2013-01-20 09:39:00,
2013-01-20 04:41:00,39.6,33.9,30.05,SSW,200,1.0,2.0,80,0.00,,,0.00,Wunderground v.1.15,2013-01-20 09:41:00,
2013-01-20 04:43:00,39.7,34.0,30.05,SSW,205,1.0,2.0,80,0.00,,,0.00,Wunderground v.1.15,2013-01-20 09:43:00,
2013-01-20 04:44:00,39.7,34.0,30.05,SSW,205,1.0,2.0,80,0.00,,,0.00,Wunderground v.1.15,2013-01-20 09:44:00,
2013-01-20 04:46:00,39.7,34.0,30.05,SSW,205,1.0,2.0,80,0.00,,,0.00,Wunderground v.1.15,2013-01-20 09:46:00,
2013-01-20 04:48:00,39.7,34.0,30.05,SSW,201,0.0,2.0,80,0.00,,,0.00,Wunderground v.1.15,2013-01-20 09:48:00,
2013-01-20 04:49:00,39.6,33.9,30.05,SSW,201,0.0,2.0,80,0.00,,,0.00,Wunderground v.1.15,2013-01-20 09:49:00,
2013-01-20 04:52:00,39.6,33.9,30.05,SSW,198,1.0,1.0,80,0.00,,,0.00,Wunderground v.1.15,2013-01-20 09:52:00,
2013-01-20 04:53:00,39.6,33.6,30.05,SSW,197,1.0,1.0,79,0.00,,,0.00,Wunderground v.1.15,2013-01-20 09:53:00,
2013-01-20 04:54:00,39.6,33.6,30.05,SSW,197,1.0,1.0,79,0.00,,,0.00,Wunderground v.1.15,2013-01-20 09:54:00,
2013-01-20 04:57:00,39.7,33.7,30.05,SSW,205,1.0,1.0,79,0.00,,,0.00,Wunderground v.1.15,2013-01-20 09:57:00,
2013-01-20 04:58:00,39.7,33.7,30.05,SSW,205,1.0,1.0,79,0.00,,,0.00,Wunderground v.1.15,2013-01-20 09:58:00,
2013-01-20 04:59:00,39.7,33.7,30.05,SSW,205,1.0,1.0,79,0.00,,,0.00,Wunderground v.1.15,2013-01-20 09:59:00,
2013-01-20 05:02:00,39.7,33.7,30.05,SW,219,1.0,2.0,79,0.00,,,0.00,Wunderground v.1.15,2013-01-20 10:02:00,
2013-01-20 05:03:00,39.8,33.8,30.05,South,191,2.0,2.0,79,0.00,,,0.00,Wunderground v.1.15,2013-01-20 10:03:00,
2013-01-20 05:04:00,39.8,33.5,30.05,SSW,203,1.0,2.0,78,0.00,,,0.00,Wunderground v.1.15,2013-01-20 10:04:00,
2013-01-20 05:07:00,39.9,33.6,30.05,SSW,205,1.0,2.0,78,0.00,,,0.00,Wunderground v.1.15,2013-01-20 10:07:00,
2013-01-20 05:08:00,39.9,33.6,30.05,SSW,211,1.0,2.0,78,0.00,,,0.00,Wunderground v.1.15,2013-01-20 10:08:00,
2013-01-20 05:09:00,39.9,33.6,30.05,SSW,211,1.0,2.0,78,0.00,,,0.00,Wunderground v.1.15,2013-01-20 10:09:00,
2013-01-20 05:12:00,39.9,33.6,30.05,SSW,201,1.0,1.0,78,0.00,,,0.00,Wunderground v.1.15,2013-01-20 10:12:00,
2013-01-20 05:13:00,39.9,33.6,30.05,SSW,201,0.0,1.0,78,0.00,,,0.00,Wunderground v.1.15,2013-01-20 10:13:00,
2013-01-20 05:14:00,39.9,33.6,30.05,SSW,195,1.0,2.0,78,0.00,,,0.00,Wunderground v.1.15,2013-01-20 10:14:00,
2013-01-20 05:18:00,40.0,33.4,30.05,SSW,207,1.0,2.0,77,0.00,,,0.00,Wunderground v.1.15,2013-01-20 10:18:00,
2013-01-20 05:19:00,40.0,33.4,30.05,SSW,193,1.0,2.0,77,0.00,,,0.00,Wunderground v.1.15,2013-01-20 10:19:00,
2013-01-20 05:23:00,40.0,33.4,30.05,SSW,210,0.0,2.0,77,0.00,,,0.00,Wunderground v.1.15,2013-01-20 10:23:00,
2013-01-20 05:24:00,40.0,33.4,30.05,SSW,210,1.0,2.0,77,0.00,,,0.00,Wunderground v.1.15,2013-01-20 10:24:00,
2013-01-20 05:25:00,40.0,33.4,30.05,SSW,198,1.0,2.0,77,0.00,,,0.00,Wunderground v.1.15,2013-01-20 10:25:00,
2013-01-20 05:28:00,40.0,33.4,30.05,SSW,198,1.0,2.0,77,0.00,,,0.00,Wunderground v.1.15,2013-01-20 10:28:00,
2013-01-20 05:29:00,39.9,33.3,30.05,SSW,203,2.0,2.0,77,0.00,,,0.00,Wunderground v.1.15,2013-01-20 10:29:00,
2013-01-20 05:30:00,40.0,33.4,30.04,SSW,198,2.0,2.0,77,0.00,,,0.00,Wunderground v.1.15,2013-01-20 10:30:00,
2013-01-20 05:34:00,40.0,33.4,30.04,SSW,203,1.0,2.0,77,0.00,,,0.00,Wunderground v.1.15,2013-01-20 10:34:00,
2013-01-20 05:35:00,40.0,33.4,30.04,SSW,213,0.0,2.0,77,0.00,,,0.00,Wunderground v.1.15,2013-01-20 10:35:00,
2013-01-20 05:36:00,40.0,33.4,30.04,SW,214,0.0,2.0,77,0.00,,,0.00,Wunderground v.1.15,2013-01-20 10:36:00,
2013-01-20 05:39:00,39.9,33.3,30.05,SW,214,0.0,2.0,77,0.00,,,0.00,Wunderground v.1.15,2013-01-20 10:39:00,
2013-01-20 05:40:00,39.9,33.3,30.04,SW,214,0.0,1.0,77,0.00,,,0.00,Wunderground v.1.15,2013-01-20 10:40:00,
2013-01-20 05:41:00,39.8,33.2,30.05,SW,214,1.0,1.0,77,0.00,,,0.00,Wunderground v.1.15,2013-01-20 10:41:00,
2013-01-20 05:44:00,39.7,33.1,30.04,SW,214,0.0,1.0,77,0.00,,,0.00,Wunderground v.1.15,2013-01-20 10:44:00,
2013-01-20 05:45:00,39.7,33.1,30.04,SW,214,0.0,1.0,77,0.00,,,0.00,Wunderground v.1.15,2013-01-20 10:45:00,
2013-01-20 05:47:00,39.7,33.1,30.04,SW,214,0.0,1.0,77,0.00,,,0.00,Wunderground v.1.15,2013-01-20 10:47:00,
2013-01-20 05:49:00,39.6,33.3,30.04,SW,214,0.0,1.0,78,0.00,,,0.00,Wunderground v.1.15,2013-01-20 10:49:00,
2013-01-20 05:50:00,39.5,33.2,30.04,SW,214,0.0,0.0,78,0.00,,,0.00,Wunderground v.1.15,2013-01-20 10:50:00,
2013-01-20 05:52:00,39.5,33.2,30.04,SW,214,0.0,0.0,78,0.00,,,0.00,Wunderground v.1.15,2013-01-20 10:52:00,
2013-01-20 05:54:00,39.3,33.0,30.04,SW,214,0.0,1.0,78,0.00,,,0.00,Wunderground v.1.15,2013-01-20 10:54:00,
2013-01-20 05:57:00,39.1,32.8,30.04,SW,214,0.0,1.0,78,0.00,,,0.00,Wunderground v.1.15,2013-01-20 10:57:00,
2013-01-20 05:59:00,38.9,32.9,30.04,SW,214,0.0,1.0,79,0.00,,,0.00,Wunderground v.1.15,2013-01-20 10:59:00,
2013-01-20 06:02:00,38.7,32.7,30.04,SW,214,0.0,0.0,79,0.00,,,0.00,Wunderground v.1.15,2013-01-20 11:02:00,
2013-01-20 06:04:00,38.4,32.5,30.04,SW,214,0.0,0.0,79,0.00,,,0.00,Wunderground v.1.15,2013-01-20 11:04:00,
2013-01-20 06:07:00,38.2,32.6,30.04,SW,214,0.0,0.0,80,0.00,,,0.00,Wunderground v.1.15,2013-01-20 11:07:00,
2013-01-20 06:08:00,38.2,32.6,30.04,SW,214,0.0,0.0,80,0.00,,,0.00,Wunderground v.1.15,2013-01-20 11:08:00,
2013-01-20 06:09:00,38.1,32.5,30.04,SW,214,0.0,0.0,80,0.00,,,0.00,Wunderground v.1.15,2013-01-20 11:09:00,
2013-01-20 06:10:00,38.1,32.5,30.04,SW,214,0.0,0.0,80,0.00,,,0.00,Wunderground v.1.15,2013-01-20 11:10:00,
2013-01-20 06:13:00,37.9,32.6,30.04,SW,214,0.0,0.0,81,0.00,,,0.00,Wunderground v.1.15,2013-01-20 11:13:00,
2013-01-20 06:15:00,37.8,32.5,30.04,SW,214,0.0,0.0,81,0.00,,,0.00,Wunderground v.1.15,2013-01-20 11:15:00,
2013-01-20 06:18:00,37.8,32.5,30.04,SW,214,0.0,1.0,81,0.00,,,0.00,Wunderground v.1.15,2013-01-20 11:18:00,
2013-01-20 06:20:00,37.8,32.8,30.04,SW,214,0.0,0.0,82,0.00,,,0.00,Wunderground v.1.15,2013-01-20 11:20:00,
2013-01-20 06:24:00,37.6,32.6,30.04,SW,214,0.0,0.0,82,0.00,,,0.00,Wunderground v.1.15,2013-01-20 11:24:00,
2013-01-20 06:25:00,37.5,32.5,30.04,SW,214,0.0,0.0,82,0.00,,,0.00,Wunderground v.1.15,2013-01-20 11:25:00,
2013-01-20 06:29:00,37.4,32.7,30.04,SSE,150,0.0,1.0,83,0.00,,,0.00,Wunderground v.1.15,2013-01-20 11:29:00,
2013-01-20 06:30:00,37.3,32.6,30.04,SSE,150,0.0,0.0,83,0.00,,,0.00,Wunderground v.1.15,2013-01-20 11:30:00,
2013-01-20 06:34:00,37.3,32.3,30.04,SSE,150,0.0,0.0,82,0.00,,,0.00,Wunderground v.1.15,2013-01-20 11:34:00,
2013-01-20 06:35:00,37.3,32.3,30.04,SSE,150,0.0,0.0,82,0.00,,,0.00,Wunderground v.1.15,2013-01-20 11:35:00,
2013-01-20 06:39:00,37.0,32.3,30.04,SSE,150,0.0,0.0,83,0.00,,,0.00,Wunderground v.1.15,2013-01-20 11:39:00,
2013-01-20 06:40:00,36.9,32.2,30.04,SSE,151,0.0,0.0,83,0.00,,,0.00,Wunderground v.1.15,2013-01-20 11:40:00,
2013-01-20 06:44:00,36.8,32.4,30.04,SSE,150,0.0,0.0,84,0.00,,,0.00,Wunderground v.1.15,2013-01-20 11:44:00,
2013-01-20 06:45:00,36.9,32.2,30.04,SSE,150,0.0,0.0,83,0.00,,,0.00,Wunderground v.1.15,2013-01-20 11:45:00,
2013-01-20 06:46:00,36.9,32.2,30.04,SSE,150,0.0,0.0,83,0.00,,,0.00,Wunderground v.1.15,2013-01-20 11:46:00,
2013-01-20 06:49:00,37.1,32.4,30.04,SSE,150,0.0,1.0,83,0.00,,,0.00,Wunderground v.1.15,2013-01-20 11:49:00,
2013-01-20 06:50:00,37.1,32.4,30.04,SSE,150,0.0,0.0,83,0.00,,,0.00,Wunderground v.1.15,2013-01-20 11:50:00,
2013-01-20 06:51:00,37.2,32.5,30.04,SSE,150,0.0,0.0,83,0.00,,,0.00,Wunderground v.1.15,2013-01-20 11:51:00,
2013-01-20 06:54:00,37.3,32.3,30.04,South,186,2.0,2.0,82,0.00,,,0.00,Wunderground v.1.15,2013-01-20 11:54:00,
2013-01-20 06:55:00,37.4,32.4,30.04,SSW,193,1.0,2.0,82,0.00,,,0.00,Wunderground v.1.15,2013-01-20 11:55:00,
2013-01-20 06:56:00,37.5,32.5,30.04,SSW,193,0.0,2.0,82,0.00,,,0.00,Wunderground v.1.15,2013-01-20 11:56:00,
2013-01-20 06:59:00,37.6,32.6,30.04,SSW,194,0.0,2.0,82,0.00,,,0.00,Wunderground v.1.15,2013-01-20 11:59:00,
2013-01-20 07:01:00,37.5,32.2,30.04,SSW,194,0.0,1.0,81,0.00,,,0.00,Wunderground v.1.15,2013-01-20 12:01:00,
2013-01-20 07:04:00,37.4,32.4,30.05,SW,225,1.0,1.0,82,0.00,,,0.00,Wunderground v.1.15,2013-01-20 12:04:00,
2013-01-20 07:06:00,37.3,32.3,30.05,SW,226,0.0,1.0,82,0.00,,,0.00,Wunderground v.1.15,2013-01-20 12:06:00,
2013-01-20 07:07:00,37.2,32.2,30.05,SSW,212,0.0,1.0,82,0.00,,,0.00,Wunderground v.1.15,2013-01-20 12:07:00,
2013-01-20 07:09:00,37.1,32.4,30.05,SSW,212,0.0,1.0,83,0.00,,,0.00,Wunderground v.1.15,2013-01-20 12:09:00,
2013-01-20 07:11:00,37.1,32.4,30.05,SSW,212,0.0,0.0,83,0.00,,,0.00,Wunderground v.1.15,2013-01-20 12:11:00,
2013-01-20 07:12:00,37.1,32.1,30.05,SSW,212,0.0,0.0,82,0.00,,,0.00,Wunderground v.1.15,2013-01-20 12:12:00,
2013-01-20 07:14:00,36.9,32.2,30.05,NW,310,0.0,1.0,83,0.00,,,0.00,Wunderground v.1.15,2013-01-20 12:14:00,
2013-01-20 07:16:00,36.8,32.1,30.05,NW,311,0.0,1.0,83,0.00,,,0.00,Wunderground v.1.15,2013-01-20 12:16:00,
2013-01-20 07:17:00,36.7,32.0,30.05,NW,310,0.0,1.0,83,0.00,,,0.00,Wunderground v.1.15,2013-01-20 12:17:00,
2013-01-20 07:18:00,36.6,31.9,30.05,NW,310,0.0,1.0,83,0.00,,,0.00,Wunderground v.1.15,2013-01-20 12:18:00,
2013-01-20 07:19:00,36.5,31.8,30.05,NW,310,0.0,1.0,83,0.00,,,0.00,Wunderground v.1.15,2013-01-20 12:19:00,
2013-01-20 07:21:00,36.4,32.0,30.05,NW,310,0.0,0.0,84,0.00,,,0.00,Wunderground v.1.15,2013-01-20 12:21:00,
2013-01-20 07:22:00,36.3,31.9,30.05,NW,310,0.0,0.0,84,0.00,,,0.00,Wunderground v.1.15,2013-01-20 12:22:00,
2013-01-20 07:23:00,36.2,31.8,30.05,NW,310,0.0,0.0,84,0.00,,,0.00,Wunderground v.1.15,2013-01-20 12:23:00,
2013-01-20 07:24:00,36.1,32.0,30.05,NW,310,0.0,0.0,85,0.00,,,0.00,Wunderground v.1.15,2013-01-20 12:24:00,
2013-01-20 07:26:00,36.0,31.9,30.05,NW,311,0.0,0.0,85,0.00,,,0.00,Wunderground v.1.15,2013-01-20 12:26:00,
2013-01-20 07:27:00,35.9,31.8,30.05,NW,311,0.0,0.0,85,0.00,,,0.00,Wunderground v.1.15,2013-01-20 12:27:00,
2013-01-20 07:28:00,35.9,31.8,30.05,NW,310,0.0,0.0,85,0.00,,,0.00,Wunderground v.1.15,2013-01-20 12:28:00,
2013-01-20 07:30:00,35.8,31.7,30.05,NW,310,0.0,0.0,85,0.00,,,0.00,Wunderground v.1.15,2013-01-20 12:30:00,
2013-01-20 07:31:00,35.8,32.0,30.05,NW,310,0.0,0.0,86,0.00,,,0.00,Wunderground v.1.15,2013-01-20 12:31:00,
2013-01-20 07:32:00,35.8,32.0,30.05,NW,311,0.0,0.0,86,0.00,,,0.00,Wunderground v.1.15,2013-01-20 12:32:00,
2013-01-20 07:33:00,35.8,32.0,30.05,NW,310,0.0,0.0,86,0.00,,,0.00,Wunderground v.1.15,2013-01-20 12:33:00,
2013-01-20 07:35:00,35.9,32.1,30.05,NW,308,0.0,0.0,86,0.00,,,0.00,Wunderground v.1.15,2013-01-20 12:35:00,
2013-01-20 07:36:00,35.9,31.8,30.05,NW,308,0.0,0.0,85,0.00,,,0.00,Wunderground v.1.15,2013-01-20 12:36:00,
2013-01-20 07:37:00,36.0,31.9,30.05,NW,307,1.0,1.0,85,0.00,,,0.00,Wunderground v.1.15,2013-01-20 12:37:00,
2013-01-20 07:38:00,36.0,31.9,30.05,NW,308,0.0,1.0,85,0.00,,,0.00,Wunderground v.1.15,2013-01-20 12:38:00,
2013-01-20 07:40:00,36.1,32.0,30.05,NW,308,0.0,0.0,85,0.00,,,0.00,Wunderground v.1.15,2013-01-20 12:40:00,
2013-01-20 07:42:00,36.2,31.8,30.05,NW,307,0.0,0.0,84,0.00,,,0.00,Wunderground v.1.15,2013-01-20 12:42:00,
2013-01-20 07:43:00,36.2,31.8,30.05,NW,308,0.0,0.0,84,0.00,,,0.00,Wunderground v.1.15,2013-01-20 12:43:00,
2013-01-20 07:45:00,36.2,31.8,30.05,NW,308,0.0,0.0,84,0.00,,,0.00,Wunderground v.1.15,2013-01-20 12:45:00,
2013-01-20 07:47:00,36.2,32.1,30.05,NW,308,0.0,0.0,85,0.00,,,0.00,Wunderground v.1.15,2013-01-20 12:47:00,
2013-01-20 07:49:00,36.3,31.9,30.05,NW,307,0.0,1.0,84,0.00,,,0.00,Wunderground v.1.15,2013-01-20 12:49:00,
2013-01-20 07:50:00,36.3,31.9,30.04,SE,144,1.0,1.0,84,0.00,,,0.00,Wunderground v.1.15,2013-01-20 12:50:00,
2013-01-20 07:52:00,36.4,32.0,30.04,SE,144,0.0,1.0,84,0.00,,,0.00,Wunderground v.1.15,2013-01-20 12:52:00,
2013-01-20 07:53:00,36.5,32.1,30.04,SE,144,0.0,1.0,84,0.00,,,0.00,Wunderground v.1.15,2013-01-20 12:53:00,
2013-01-20 07:54:00,36.6,32.2,30.04,SE,143,0.0,1.0,84,0.00,,,0.00,Wunderground v.1.15,2013-01-20 12:54:00,
2013-01-20 07:56:00,36.7,32.3,30.04,SW,218,1.0,1.0,84,0.00,,,0.00,Wunderground v.1.15,2013-01-20 12:56:00,
2013-01-20 07:57:00,36.8,32.1,30.04,SW,218,0.0,1.0,83,0.00,,,0.00,Wunderground v.1.15,2013-01-20 12:57:00,
2013-01-20 07:58:00,36.9,32.2,30.05,SW,218,0.0,1.0,83,0.00,,,0.00,Wunderground v.1.15,2013-01-20 12:58:00,
2013-01-20 07:59:00,36.9,32.2,30.05,SW,218,0.0,1.0,83,0.00,,,0.00,Wunderground v.1.15,2013-01-20 12:59:00,
2013-01-20 08:01:00,37.0,32.3,30.05,SW,218,0.0,1.0,83,0.00,,,0.00,Wunderground v.1.15,2013-01-20 13:01:00,
2013-01-20 08:02:00,37.1,32.4,30.05,SW,218,0.0,1.0,83,0.00,,,0.00,Wunderground v.1.15,2013-01-20 13:02:00,
2013-01-20 08:03:00,37.1,32.4,30.05,SW,218,0.0,1.0,83,0.00,,,0.00,Wunderground v.1.15,2013-01-20 13:03:00,
2013-01-20 08:04:00,37.1,32.4,30.05,SW,218,0.0,1.0,83,0.00,,,0.00,Wunderground v.1.15,2013-01-20 13:04:00,
2013-01-20 08:06:00,37.1,32.4,30.05,SW,218,0.0,1.0,83,0.00,,,0.00,Wunderground v.1.15,2013-01-20 13:06:00,
2013-01-20 08:07:00,37.1,32.4,30.05,SW,218,0.0,1.0,83,0.00,,,0.00,Wunderground v.1.15,2013-01-20 13:07:00,
2013-01-20 08:08:00,37.1,32.4,30.05,SW,218,0.0,1.0,83,0.00,,,0.00,Wunderground v.1.15,2013-01-20 13:08:00,
2013-01-20 08:09:00,37.0,32.3,30.06,SW,218,0.0,1.0,83,0.00,,,0.00,Wunderground v.1.15,2013-01-20 13:09:00,
2013-01-20 08:12:00,36.9,32.2,30.05,SSE,159,1.0,1.0,83,0.00,,,0.00,Wunderground v.1.15,2013-01-20 13:12:00,
2013-01-20 08:13:00,37.0,32.3,30.05,SSE,150,1.0,1.0,83,0.00,,,0.00,Wunderground v.1.15,2013-01-20 13:13:00,
2013-01-20 08:14:00,37.1,32.4,30.05,SSE,150,0.0,1.0,83,0.00,,,0.00,Wunderground v.1.15,2013-01-20 13:14:00,
2013-01-20 08:17:00,37.4,32.4,30.05,SSE,151,1.0,1.0,82,0.00,,,0.00,Wunderground v.1.15,2013-01-20 13:17:00,
2013-01-20 08:18:00,37.6,32.6,30.06,SSW,198,0.0,1.0,82,0.00,,,0.00,Wunderground v.1.15,2013-01-20 13:18:00,
2013-01-20 08:19:00,37.7,32.7,30.06,SSW,198,0.0,1.0,82,0.00,,,0.00,Wunderground v.1.15,2013-01-20 13:19:00,
2013-01-20 08:22:00,38.0,32.7,30.06,SSW,195,0.0,2.0,81,0.00,,,0.00,Wunderground v.1.15,2013-01-20 13:22:00,
2013-01-20 08:23:00,38.2,32.9,30.06,SSW,198,0.0,2.0,81,0.00,,,0.00,Wunderground v.1.15,2013-01-20 13:23:00,
2013-01-20 08:25:00,38.4,32.8,30.06,SSW,207,0.0,2.0,80,0.00,,,0.00,Wunderground v.1.15,2013-01-20 13:25:00,
2013-01-20 08:27:00,38.7,33.1,30.06,SSW,193,0.0,2.0,80,0.00,,,0.00,Wunderground v.1.15,2013-01-20 13:27:00,
2013-01-20 08:28:00,38.8,32.8,30.06,SSW,205,0.0,2.0,79,0.00,,,0.00,Wunderground v.1.15,2013-01-20 13:28:00,
2013-01-20 08:30:00,38.9,32.9,30.06,SSW,205,1.0,2.0,79,0.00,,,0.00,Wunderground v.1.15,2013-01-20 13:30:00,
2013-01-20 08:32:00,39.1,33.1,30.06,SW,214,0.0,1.0,79,0.00,,,0.00,Wunderground v.1.15,2013-01-20 13:32:00,
2013-01-20 08:33:00,39.3,33.0,30.06,SW,214,0.0,1.0,78,0.00,,,0.00,Wunderground v.1.15,2013-01-20 13:33:00,
2013-01-20 08:35:00,39.4,33.1,30.06,SSW,212,0.0,1.0,78,0.00,,,0.00,Wunderground v.1.15,2013-01-20 13:35:00,
2013-01-20 08:38:00,39.7,33.1,30.06,SSW,209,0.0,1.0,77,0.00,,,0.00,Wunderground v.1.15,2013-01-20 13:38:00,
2013-01-20 08:39:00,39.8,33.2,30.06,SSW,209,0.0,1.0,77,0.00,,,0.00,Wunderground v.1.15,2013-01-20 13:39:00,
2013-01-20 08:40:00,39.9,33.3,30.06,SSW,198,0.0,1.0,77,0.00,,,0.00,Wunderground v.1.15,2013-01-20 13:40:00,
2013-01-20 08:43:00,40.2,33.2,30.06,SSW,200,0.0,1.0,76,0.00,,,0.00,Wunderground v.1.15,2013-01-20 13:43:00,
2013-01-20 08:44:00,40.3,33.3,30.06,SSW,200,0.0,1.0,76,0.00,,,0.00,Wunderground v.1.15,2013-01-20 13:44:00,
2013-01-20 08:45:00,40.4,33.4,30.06,South,191,1.0,3.0,76,0.00,,,0.00,Wunderground v.1.15,2013-01-20 13:45:00,
2013-01-20 08:48:00,40.6,33.3,30.06,SW,219,1.0,3.0,75,0.00,,,0.00,Wunderground v.1.15,2013-01-20 13:48:00,
2013-01-20 08:49:00,40.7,33.4,30.06,SW,221,1.0,3.0,75,0.00,,,0.00,Wunderground v.1.15,2013-01-20 13:49:00,
2013-01-20 08:50:00,40.8,33.5,30.06,SSW,200,0.0,1.0,75,0.00,,,0.00,Wunderground v.1.15,2013-01-20 13:50:00,
2013-01-20 08:53:00,41.1,33.4,30.06,SSW,207,0.0,2.0,74,0.00,,,0.00,Wunderground v.1.15,2013-01-20 13:53:00,
2013-01-20 08:54:00,41.0,33.3,30.06,West,264,1.0,2.0,74,0.00,,,0.00,Wunderground v.1.15,2013-01-20 13:54:00,
2013-01-20 08:55:00,41.1,33.4,30.06,South,191,2.0,2.0,74,0.00,,,0.00,Wunderground v.1.15,2013-01-20 13:55:00,
2013-01-20 08:59:00,41.4,33.7,30.06,SW,214,2.0,3.0,74,0.00,,,0.00,Wunderground v.1.15,2013-01-20 13:59:00,
2013-01-20 09:00:00,41.4,33.4,30.06,SW,217,1.0,1.0,73,0.00,,,0.00,Wunderground v.1.15,2013-01-20 14:00:00,
2013-01-20 09:04:00,41.6,33.9,30.07,SW,222,0.0,1.0,74,0.00,,,0.00,Wunderground v.1.15,2013-01-20 14:04:00,
2013-01-20 09:05:00,41.7,34.0,30.07,SSW,203,1.0,1.0,74,0.00,,,0.00,Wunderground v.1.15,2013-01-20 14:05:00,
2013-01-20 09:06:00,41.7,33.7,30.07,SSW,203,0.0,2.0,73,0.00,,,0.00,Wunderground v.1.15,2013-01-20 14:06:00,
2013-01-20 09:09:00,41.9,34.2,30.07,SSW,203,1.0,2.0,74,0.00,,,0.00,Wunderground v.1.15,2013-01-20 14:09:00,
2013-01-20 09:10:00,42.1,34.1,30.07,SSW,193,1.0,1.0,73,0.00,,,0.00,Wunderground v.1.15,2013-01-20 14:10:00,
2013-01-20 09:11:00,42.2,34.2,30.07,SSW,205,2.0,2.0,73,0.00,,,0.00,Wunderground v.1.15,2013-01-20 14:11:00,
2013-01-20 09:14:00,42.4,34.4,30.07,SSW,212,1.0,2.0,73,0.00,,,0.00,Wunderground v.1.15,2013-01-20 14:14:00,
2013-01-20 09:16:00,42.5,34.1,30.07,South,183,0.0,2.0,72,0.00,,,0.00,Wunderground v.1.15,2013-01-20 14:16:00,
2013-01-20 09:19:00,42.8,34.4,30.07,SSW,206,1.0,2.0,72,0.00,,,0.00,Wunderground v.1.15,2013-01-20 14:19:00,
2013-01-20 09:21:00,43.0,34.2,30.07,SW,214,2.0,2.0,71,0.00,,,0.00,Wunderground v.1.15,2013-01-20 14:21:00,
2013-01-20 09:24:00,43.3,34.5,30.07,SSW,205,0.0,2.0,71,0.00,,,0.00,Wunderground v.1.15,2013-01-20 14:24:00,
2013-01-20 09:25:00,43.4,34.6,30.07,SSW,205,1.0,2.0,71,0.00,,,0.00,Wunderground v.1.15,2013-01-20 14:25:00,
2013-01-20 09:26:00,43.6,34.5,30.07,South,184,2.0,3.0,70,0.00,,,0.00,Wunderground v.1.15,2013-01-20 14:26:00,
2013-01-20 09:29:00,43.9,34.7,30.07,WSW,240,0.0,3.0,70,0.00,,,0.00,Wunderground v.1.15,2013-01-20 14:29:00,
2013-01-20 09:30:00,43.9,34.7,30.07,WSW,240,0.0,1.0,70,0.00,,,0.00,Wunderground v.1.15,2013-01-20 14:30:00,
2013-01-20 09:31:00,44.1,34.9,30.07,SW,230,1.0,1.0,70,0.00,,,0.00,Wunderground v.1.15,2013-01-20 14:31:00,
2013-01-20 09:35:00,44.4,34.9,30.06,SSW,198,2.0,2.0,69,0.00,,,0.00,Wunderground v.1.15,2013-01-20 14:35:00,
2013-01-20 09:36:00,44.5,34.6,30.06,SSW,206,1.0,3.0,68,0.00,,,0.00,Wunderground v.1.15,2013-01-20 14:36:00,
2013-01-20 09:40:00,44.9,34.6,30.06,SW,215,1.0,2.0,67,0.00,,,0.00,Wunderground v.1.15,2013-01-20 14:40:00,
2013-01-20 09:41:00,45.0,34.7,30.06,SSW,198,1.0,2.0,67,0.00,,,0.00,Wunderground v.1.15,2013-01-20 14:41:00,
2013-01-20 09:42:00,45.1,35.2,30.06,SW,222,1.0,2.0,68,0.00,,,0.00,Wunderground v.1.15,2013-01-20 14:42:00,
2013-01-20 09:45:00,45.3,34.6,30.06,SSW,203,0.0,3.0,66,0.00,,,0.00,Wunderground v.1.15,2013-01-20 14:45:00,
2013-01-20 09:46:00,45.4,35.1,30.06,SSW,203,0.0,3.0,67,0.00,,,0.00,Wunderground v.1.15,2013-01-20 14:46:00,
2013-01-20 09:47:00,45.5,35.2,30.06,SSW,203,0.0,3.0,67,0.00,,,0.00,Wunderground v.1.15,2013-01-20 14:47:00,
2013-01-20 09:50:00,45.7,35.4,30.06,SSW,198,0.0,1.0,67,0.00,,,0.00,Wunderground v.1.15,2013-01-20 14:50:00,
2013-01-20 09:51:00,45.9,35.6,30.06,South,169,0.0,1.0,67,0.00,,,0.00,Wunderground v.1.15,2013-01-20 14:51:00,
2013-01-20 09:53:00,46.0,35.7,30.06,SW,215,1.0,1.0,67,0.00,,,0.00,Wunderground v.1.15,2013-01-20 14:53:00,
2013-01-20 09:55:00,46.3,35.6,30.06,WSW,245,1.0,2.0,66,0.00,,,0.00,Wunderground v.1.15,2013-01-20 14:55:00,
2013-01-20 09:56:00,46.4,34.9,30.06,SW,231,0.0,2.0,64,0.00,,,0.00,Wunderground v.1.15,2013-01-20 14:56:00,
2013-01-20 09:57:00,46.5,35.4,30.06,SW,231,0.0,2.0,65,0.00,,,0.00,Wunderground v.1.15,2013-01-20 14:57:00,
2013-01-20 10:00:00,46.9,35.7,30.06,SSW,201,0.0,0.0,65,0.00,,,0.00,Wunderground v.1.15,2013-01-20 15:00:00,
2013-01-20 10:01:00,47.0,35.4,30.06,ESE,121,0.0,1.0,64,0.00,,,0.00,Wunderground v.1.15,2013-01-20 15:01:00,
2013-01-20 10:02:00,47.1,35.5,30.06,SSE,148,0.0,1.0,64,0.00,,,0.00,Wunderground v.1.15,2013-01-20 15:02:00,
2013-01-20 10:03:00,47.3,35.3,30.06,SSE,161,0.0,1.0,63,0.00,,,0.00,Wunderground v.1.15,2013-01-20 15:03:00,
2013-01-20 10:05:00,47.6,34.8,30.06,SSE,150,2.0,2.0,61,0.00,,,0.00,Wunderground v.1.15,2013-01-20 15:05:00,
2013-01-20 10:06:00,47.7,34.9,30.06,South,181,1.0,2.0,61,0.00,,,0.00,Wunderground v.1.15,2013-01-20 15:06:00,
2013-01-20 10:07:00,47.8,35.0,30.06,SSW,207,0.0,2.0,61,0.00,,,0.00,Wunderground v.1.15,2013-01-20 15:07:00,
2013-01-20 10:08:00,47.9,35.1,30.06,South,177,1.0,2.0,61,0.00,,,0.00,Wunderground v.1.15,2013-01-20 15:08:00,
2013-01-20 10:10:00,48.3,35.5,30.06,SSW,203,2.0,2.0,61,0.00,,,0.00,Wunderground v.1.15,2013-01-20 15:10:00,
2013-01-20 10:11:00,48.3,34.6,30.06,SSW,193,1.0,3.0,59,0.00,,,0.00,Wunderground v.1.15,2013-01-20 15:11:00,
2013-01-20 10:12:00,48.5,34.8,30.06,SSW,211,0.0,3.0,59,0.00,,,0.00,Wunderground v.1.15,2013-01-20 15:12:00,
2013-01-20 10:13:00,48.5,35.2,30.06,SSW,211,0.0,3.0,60,0.00,,,0.00,Wunderground v.1.15,2013-01-20 15:13:00,
2013-01-20 10:15:00,48.9,35.6,30.06,SSW,198,2.0,3.0,60,0.00,,,0.00,Wunderground v.1.15,2013-01-20 15:15:00,
2013-01-20 10:16:00,49.0,35.3,30.06,SSW,212,1.0,3.0,59,0.00,,,0.00,Wunderground v.1.15,2013-01-20 15:16:00,
2013-01-20 10:18:00,49.2,35.5,30.06,SSW,197,1.0,3.0,59,0.00,,,0.00,Wunderground v.1.15,2013-01-20 15:18:00,
2013-01-20 10:21:00,49.5,34.9,30.06,SSW,210,3.0,3.0,57,0.00,,,0.00,Wunderground v.1.15,2013-01-20 15:21:00,
2013-01-20 10:23:00,49.7,35.1,30.06,South,172,0.0,3.0,57,0.00,,,0.00,Wunderground v.1.15,2013-01-20 15:23:00,
2013-01-20 10:24:00,49.7,35.1,30.06,South,173,0.0,3.0,57,0.00,,,0.00,Wunderground v.1.15,2013-01-20 15:24:00,
2013-01-20 10:26:00,50.0,34.9,30.06,SW,214,2.0,3.0,56,0.00,,,0.00,Wunderground v.1.15,2013-01-20 15:26:00,
2013-01-20 10:27:00,50.0,34.9,30.06,SW,215,1.0,3.0,56,0.00,,,0.00,Wunderground v.1.15,2013-01-20 15:27:00,
2013-01-20 10:29:00,50.3,35.2,30.06,SSW,205,1.0,3.0,56,0.00,,,0.00,Wunderground v.1.15,2013-01-20 15:29:00,
2013-01-20 10:31:00,50.5,34.9,30.06,WNW,298,1.0,2.0,55,0.00,,,0.00,Wunderground v.1.15,2013-01-20 15:31:00,
2013-01-20 10:32:00,50.6,35.0,30.06,WNW,285,1.0,2.0,55,0.00,,,0.00,Wunderground v.1.15,2013-01-20 15:32:00,
2013-01-20 10:34:00,50.6,35.0,30.06,SW,235,1.0,3.0,55,0.00,,,0.00,Wunderground v.1.15,2013-01-20 15:34:00,
2013-01-20 10:37:00,50.9,35.3,30.06,SW,225,2.0,4.0,55,0.00,,,0.00,Wunderground v.1.15,2013-01-20 15:37:00,
2013-01-20 10:39:00,51.0,34.9,30.06,SSW,200,4.0,4.0,54,0.00,,,0.00,Wunderground v.1.15,2013-01-20 15:39:00,
2013-01-20 10:42:00,51.2,35.1,30.06,SW,225,1.0,3.0,54,0.00,,,0.00,Wunderground v.1.15,2013-01-20 15:42:00,
2013-01-20 10:44:00,51.4,34.8,30.06,WSW,252,2.0,3.0,53,0.00,,,0.00,Wunderground v.1.15,2013-01-20 15:44:00,
2013-01-20 10:47:00,51.6,35.0,30.05,SSW,195,2.0,3.0,53,0.00,,,0.00,Wunderground v.1.15,2013-01-20 15:47:00,
2013-01-20 10:49:00,51.8,35.2,30.05,SSW,208,0.0,3.0,53,0.00,,,0.00,Wunderground v.1.15,2013-01-20 15:49:00,
2013-01-20 10:52:00,52.1,35.5,30.05,SE,139,0.0,2.0,53,0.00,,,0.00,Wunderground v.1.15,2013-01-20 15:52:00,
2013-01-20 10:54:00,52.3,35.7,30.05,SSW,200,1.0,2.0,53,0.00,,,0.00,Wunderground v.1.15,2013-01-20 15:54:00,
2013-01-20 10:57:00,52.6,35.5,30.05,SW,231,2.0,3.0,52,0.00,,,0.00,Wunderground v.1.15,2013-01-20 15:57:00,
2013-01-20 10:59:00,52.8,35.6,30.05,SSW,195,1.0,3.0,52,0.00,,,0.00,Wunderground v.1.15,2013-01-20 15:59:00,
2013-01-20 11:02:00,52.9,35.2,30.05,South,190,1.0,3.0,51,0.00,,,0.00,Wunderground v.1.15,2013-01-20 16:02:00,
2013-01-20 11:03:00,52.9,35.2,30.05,South,185,1.0,3.0,51,0.00,,,0.00,Wunderground v.1.15,2013-01-20 16:03:00,
2013-01-20 11:04:00,53.0,35.3,30.05,South,180,3.0,4.0,51,0.00,,,0.00,Wunderground v.1.15,2013-01-20 16:04:00,
2013-01-20 11:05:00,53.0,34.8,30.05,South,184,2.0,4.0,50,0.00,,,0.00,Wunderground v.1.15,2013-01-20 16:05:00,
2013-01-20 11:07:00,53.1,34.9,30.05,SW,216,1.0,8.0,50,0.00,,,0.00,Wunderground v.1.15,2013-01-20 16:07:00,
2013-01-20 11:08:00,53.1,34.9,30.05,SW,215,2.0,8.0,50,0.00,,,0.00,Wunderground v.1.15,2013-01-20 16:08:00,
2013-01-20 11:09:00,53.2,35.0,30.04,South,183,0.0,8.0,50,0.00,,,0.00,Wunderground v.1.15,2013-01-20 16:09:00,
2013-01-20 11:10:00,53.3,35.1,30.04,South,181,0.0,2.0,50,0.00,,,0.00,Wunderground v.1.15,2013-01-20 16:10:00,
2013-01-20 11:12:00,53.5,35.8,30.04,NNW,338,1.0,3.0,51,0.00,,,0.00,Wunderground v.1.15,2013-01-20 16:12:00,
2013-01-20 11:13:00,53.5,35.8,30.04,SW,231,1.0,3.0,51,0.00,,,0.00,Wunderground v.1.15,2013-01-20 16:13:00,
2013-01-20 11:15:00,53.7,36.5,30.04,WSW,240,0.0,3.0,52,0.00,,,0.00,Wunderground v.1.15,2013-01-20 16:15:00,
2013-01-20 11:18:00,53.9,35.7,30.04,SSW,203,1.0,4.0,50,0.00,,,0.00,Wunderground v.1.15,2013-01-20 16:18:00,
2013-01-20 11:20:00,54.1,35.9,30.04,SW,231,3.0,3.0,50,0.00,,,0.00,Wunderground v.1.15,2013-01-20 16:20:00,
2013-01-20 11:23:00,54.3,36.0,30.04,South,190,3.0,4.0,50,0.00,,,0.00,Wunderground v.1.15,2013-01-20 16:23:00,
2013-01-20 11:25:00,54.4,36.6,30.03,ENE,74,3.0,4.0,51,0.00,,,0.00,Wunderground v.1.15,2013-01-20 16:25:00,
2013-01-20 11:28:00,54.7,36.4,30.03,SW,229,2.0,4.0,50,0.00,,,0.00,Wunderground v.1.15,2013-01-20 16:28:00,
2013-01-20 11:30:00,54.8,36.5,30.03,SW,235,1.0,3.0,50,0.00,,,0.00,Wunderground v.1.15,2013-01-20 16:30:00,
2013-01-20 11:31:00,54.9,36.6,30.03,SSW,193,1.0,3.0,50,0.00,,,0.00,Wunderground v.1.15,2013-01-20 16:31:00,
2013-01-20 11:33:00,55.1,36.8,30.03,SW,233,1.0,3.0,50,0.00,,,0.00,Wunderground v.1.15,2013-01-20 16:33:00,
2013-01-20 11:35:00,55.2,36.9,30.03,ESE,120,2.0,3.0,50,0.00,,,0.00,Wunderground v.1.15,2013-01-20 16:35:00,
2013-01-20 11:36:00,55.3,37.0,30.03,SSE,161,1.0,3.0,50,0.00,,,0.00,Wunderground v.1.15,2013-01-20 16:36:00,
2013-01-20 11:38:00,55.4,36.5,30.03,SW,218,2.0,3.0,49,0.00,,,0.00,Wunderground v.1.15,2013-01-20 16:38:00,
2013-01-20 11:41:00,55.5,36.6,30.02,SSW,203,0.0,2.0,49,0.00,,,0.00,Wunderground v.1.15,2013-01-20 16:41:00,
2013-01-20 11:43:00,55.7,36.8,30.02,SSW,197,1.0,2.0,49,0.00,,,0.00,Wunderground v.1.15,2013-01-20 16:43:00,
2013-01-20 11:46:00,56.1,37.2,30.02,West,274,2.0,3.0,49,0.00,,,0.00,Wunderground v.1.15,2013-01-20 16:46:00,
2013-01-20 11:48:00,56.3,36.3,30.02,South,190,2.0,4.0,47,0.00,,,0.00,Wunderground v.1.15,2013-01-20 16:48:00,
2013-01-20 11:51:00,56.5,37.0,30.01,SSW,194,1.0,2.0,48,0.00,,,0.00,Wunderground v.1.15,2013-01-20 16:51:00,
2013-01-20 11:53:00,56.7,36.1,30.01,WSW,240,0.0,3.0,46,0.00,,,0.00,Wunderground v.1.15,2013-01-20 16:53:00,
2013-01-20 11:56:00,57.0,37.5,30.01,WSW,250,2.0,3.0,48,0.00,,,0.00,Wunderground v.1.15,2013-01-20 16:56:00,
2013-01-20 11:58:00,57.2,37.1,30.01,SSW,197,0.0,3.0,47,0.00,,,0.00,Wunderground v.1.15,2013-01-20 16:58:00,
2013-01-20 11:59:00,57.3,37.2,30.01,WSW,257,0.0,3.0,47,0.00,,,0.00,Wunderground v.1.15,2013-01-20 16:59:00,
2013-01-20 12:01:00,57.5,36.9,30.01,SW,214,3.0,3.0,46,0.00,,,0.00,Wunderground v.1.15,2013-01-20 17:01:00,
2013-01-20 12:02:00,57.6,37.0,30.01,WSW,242,1.0,3.0,46,0.00,,,0.00,Wunderground v.1.15,2013-01-20 17:02:00,
2013-01-20 12:03:00,57.7,37.0,30.00,SSW,198,2.0,3.0,46,0.00,,,0.00,Wunderground v.1.15,2013-01-20 17:03:00,
2013-01-20 12:04:00,57.7,37.0,30.00,ESE,109,1.0,3.0,46,0.00,,,0.00,Wunderground v.1.15,2013-01-20 17:04:00,
2013-01-20 12:06:00,57.9,37.2,30.00,WSW,252,2.0,3.0,46,0.00,,,0.00,Wunderground v.1.15,2013-01-20 17:06:00,
2013-01-20 12:07:00,58.0,37.3,30.00,SSW,208,1.0,3.0,46,0.00,,,0.00,Wunderground v.1.15,2013-01-20 17:07:00,
2013-01-20 12:09:00,58.2,37.5,30.00,South,176,0.0,3.0,46,0.00,,,0.00,Wunderground v.1.15,2013-01-20 17:09:00,
2013-01-20 12:11:00,58.3,37.6,30.00,SW,228,1.0,2.0,46,0.00,,,0.00,Wunderground v.1.15,2013-01-20 17:11:00,
2013-01-20 12:13:00,58.3,37.6,30.00,SW,216,1.0,2.0,46,0.00,,,0.00,Wunderground v.1.15,2013-01-20 17:13:00,
2013-01-20 12:14:00,58.4,37.7,30.00,SW,234,0.0,2.0,46,0.00,,,0.00,Wunderground v.1.15,2013-01-20 17:14:00,
2013-01-20 12:16:00,58.5,37.8,30.00,SSW,193,0.0,2.0,46,0.00,,,0.00,Wunderground v.1.15,2013-01-20 17:16:00,
2013-01-20 12:18:00,58.8,38.1,29.99,SW,219,0.0,2.0,46,0.00,,,0.00,Wunderground v.1.15,2013-01-20 17:18:00,
2013-01-20 12:19:00,58.9,38.1,29.99,WSW,250,3.0,3.0,46,0.00,,,0.00,Wunderground v.1.15,2013-01-20 17:19:00,
2013-01-20 12:21:00,59.2,37.3,29.99,SW,233,0.0,3.0,44,0.00,,,0.00,Wunderground v.1.15,2013-01-20 17:21:00,
2013-01-20 12:23:00,59.3,37.4,29.99,SW,215,0.0,3.0,44,0.00,,,0.00,Wunderground v.1.15,2013-01-20 17:23:00,
2013-01-20 12:24:00,59.4,37.5,29.99,SSW,208,3.0,3.0,44,0.00,,,0.00,Wunderground v.1.15,2013-01-20 17:24:00,
2013-01-20 12:26:00,59.6,38.2,29.99,South,190,1.0,3.0,45,0.00,,,0.00,Wunderground v.1.15,2013-01-20 17:26:00,
2013-01-20 12:28:00,59.8,37.8,29.99,West,271,2.0,3.0,44,0.00,,,0.00,Wunderground v.1.15,2013-01-20 17:28:00,
2013-01-20 12:29:00,59.9,37.9,29.99,SSW,205,1.0,3.0,44,0.00,,,0.00,Wunderground v.1.15,2013-01-20 17:29:00,
2013-01-20 12:32:00,60.1,38.1,29.99,SW,225,2.0,3.0,44,0.00,,,0.00,Wunderground v.1.15,2013-01-20 17:32:00,
2013-01-20 12:33:00,60.2,38.2,29.99,SSE,160,2.0,3.0,44,0.00,,,0.00,Wunderground v.1.15,2013-01-20 17:33:00,
2013-01-20 12:34:00,60.2,37.6,29.98,SSE,160,1.0,3.0,43,0.00,,,0.00,Wunderground v.1.15,2013-01-20 17:34:00,
2013-01-20 12:35:00,60.3,37.7,29.98,SE,145,0.0,3.0,43,0.00,,,0.00,Wunderground v.1.15,2013-01-20 17:35:00,
2013-01-20 12:37:00,60.4,38.4,29.98,SW,236,1.0,3.0,44,0.00,,,0.00,Wunderground v.1.15,2013-01-20 17:37:00,
2013-01-20 12:39:00,60.6,38.6,29.98,SSE,168,0.0,3.0,44,0.00,,,0.00,Wunderground v.1.15,2013-01-20 17:39:00,
2013-01-20 12:40:00,60.8,38.1,29.98,SSW,208,1.0,1.0,43,0.00,,,0.00,Wunderground v.1.15,2013-01-20 17:40:00,
2013-01-20 12:42:00,60.9,38.2,29.98,South,184,3.0,3.0,43,0.00,,,0.00,Wunderground v.1.15,2013-01-20 17:42:00,
2013-01-20 12:43:00,60.9,37.6,29.98,WSW,251,1.0,4.0,42,0.00,,,0.00,Wunderground v.1.15,2013-01-20 17:43:00,
2013-01-20 12:44:00,60.9,37.6,29.98,WSW,238,1.0,4.0,42,0.00,,,0.00,Wunderground v.1.15,2013-01-20 17:44:00,
2013-01-20 12:45:00,61.0,37.7,29.98,SSW,208,3.0,4.0,42,0.00,,,0.00,Wunderground v.1.15,2013-01-20 17:45:00,
2013-01-20 12:47:00,61.0,37.7,29.98,SSW,195,2.0,4.0,42,0.00,,,0.00,Wunderground v.1.15,2013-01-20 17:47:00,
2013-01-20 12:49:00,61.0,37.7,29.98,SSW,195,1.0,4.0,42,0.00,,,0.00,Wunderground v.1.15,2013-01-20 17:49:00,
2013-01-20 12:51:00,61.1,37.8,29.97,WSW,251,2.0,2.0,42,0.00,,,0.00,Wunderground v.1.15,2013-01-20 17:51:00,
2013-01-20 12:52:00,61.1,37.8,29.98,West,281,2.0,4.0,42,0.00,,,0.00,Wunderground v.1.15,2013-01-20 17:52:00,
2013-01-20 12:54:00,61.1,37.2,29.97,WNW,300,1.0,4.0,41,0.00,,,0.00,Wunderground v.1.15,2013-01-20 17:54:00,
2013-01-20 12:55:00,61.0,37.1,29.97,NNW,343,0.0,4.0,41,0.00,,,0.00,Wunderground v.1.15,2013-01-20 17:55:00,
2013-01-20 12:56:00,61.0,37.7,29.97,South,187,1.0,4.0,42,0.00,,,0.00,Wunderground v.1.15,2013-01-20 17:56:00,
2013-01-20 12:57:00,61.1,37.8,29.97,SSW,205,1.0,4.0,42,0.00,,,0.00,Wunderground v.1.15,2013-01-20 17:57:00,
2013-01-20 12:59:00,61.2,37.9,29.97,SSW,212,2.0,4.0,42,0.00,,,0.00,Wunderground v.1.15,2013-01-20 17:59:00,
2013-01-20 13:00:00,61.4,38.1,29.97,SW,217,2.0,2.0,42,0.00,,,0.00,Wunderground v.1.15,2013-01-20 18:00:00,
2013-01-20 13:01:00,61.4,38.1,29.97,SSW,197,2.0,2.0,42,0.00,,,0.00,Wunderground v.1.15,2013-01-20 18:01:00,
2013-01-20 13:02:00,61.6,37.7,29.97,SW,218,1.0,2.0,41,0.00,,,0.00,Wunderground v.1.15,2013-01-20 18:02:00,
2013-01-20 13:04:00,61.7,38.4,29.97,South,183,0.0,2.0,42,0.00,,,0.00,Wunderground v.1.15,2013-01-20 18:04:00,
2013-01-20 13:05:00,61.9,37.9,29.97,SSW,192,2.0,4.0,41,0.00,,,0.00,Wunderground v.1.15,2013-01-20 18:05:00,
2013-01-20 13:06:00,61.9,37.9,29.97,SSW,193,1.0,4.0,41,0.00,,,0.00,Wunderground v.1.15,2013-01-20 18:06:00,
2013-01-20 13:07:00,62.1,38.1,29.97,SSW,209,1.0,4.0,41,0.00,,,0.00,Wunderground v.1.15,2013-01-20 18:07:00,
2013-01-20 13:09:00,62.2,38.2,29.97,WSW,257,1.0,4.0,41,0.00,,,0.00,Wunderground v.1.15,2013-01-20 18:09:00,
2013-01-20 13:10:00,62.3,37.7,29.96,South,186,2.0,4.0,40,0.00,,,0.00,Wunderground v.1.15,2013-01-20 18:10:00,
2013-01-20 13:11:00,62.4,37.7,29.96,SSW,197,2.0,4.0,40,0.00,,,0.00,Wunderground v.1.15,2013-01-20 18:11:00,
2013-01-20 13:12:00,62.5,38.5,29.96,SSE,164,0.0,4.0,41,0.00,,,0.00,Wunderground v.1.15,2013-01-20 18:12:00,
2013-01-20 13:14:00,62.7,38.6,29.96,NW,306,2.0,4.0,41,0.00,,,0.00,Wunderground v.1.15,2013-01-20 18:14:00,
2013-01-20 13:15:00,62.7,38.0,29.96,SSW,205,1.0,4.0,40,0.00,,,0.00,Wunderground v.1.15,2013-01-20 18:15:00,
2013-01-20 13:16:00,62.8,38.7,29.96,SSW,212,1.0,4.0,41,0.00,,,0.00,Wunderground v.1.15,2013-01-20 18:16:00,
2013-01-20 13:18:00,63.0,38.9,29.96,WNW,295,3.0,5.0,41,0.00,,,0.00,Wunderground v.1.15,2013-01-20 18:18:00,
2013-01-20 13:20:00,63.1,37.7,29.96,SW,219,5.0,5.0,39,0.00,,,0.00,Wunderground v.1.15,2013-01-20 18:20:00,
2013-01-20 13:21:00,63.1,38.4,29.96,NNE,13,1.0,5.0,40,0.00,,,0.00,Wunderground v.1.15,2013-01-20 18:21:00,
2013-01-20 13:23:00,63.1,37.7,29.96,SSW,205,1.0,8.0,39,0.00,,,0.00,Wunderground v.1.15,2013-01-20 18:23:00,
2013-01-20 13:25:00,63.1,37.7,29.96,SSE,158,1.0,8.0,39,0.00,,,0.00,Wunderground v.1.15,2013-01-20 18:25:00,
2013-01-20 13:26:00,63.1,37.7,29.96,East,93,1.0,8.0,39,0.00,,,0.00,Wunderground v.1.15,2013-01-20 18:26:00,
2013-01-20 13:28:00,63.1,38.4,29.96,North,3,2.0,8.0,40,0.00,,,0.00,Wunderground v.1.15,2013-01-20 18:28:00,
2013-01-20 13:30:00,63.1,37.1,29.95,WNW,285,1.0,4.0,38,0.00,,,0.00,Wunderground v.1.15,2013-01-20 18:30:00,
2013-01-20 13:31:00,63.1,37.1,29.95,SSW,205,1.0,4.0,38,0.00,,,0.00,Wunderground v.1.15,2013-01-20 18:31:00,
2013-01-20 13:32:00,63.1,37.1,29.95,SW,232,2.0,4.0,38,0.00,,,0.00,Wunderground v.1.15,2013-01-20 18:32:00,
2013-01-20 13:33:00,63.2,38.5,29.96,SSW,212,0.0,4.0,40,0.00,,,0.00,Wunderground v.1.15,2013-01-20 18:33:00,
2013-01-20 13:35:00,63.4,37.3,29.96,NNE,27,2.0,5.0,38,0.00,,,0.00,Wunderground v.1.15,2013-01-20 18:35:00,
2013-01-20 13:36:00,63.4,37.3,29.95,NNW,346,1.0,5.0,38,0.00,,,0.00,Wunderground v.1.15,2013-01-20 18:36:00,
2013-01-20 13:37:00,63.4,37.3,29.95,WSW,242,2.0,8.0,38,0.00,,,0.00,Wunderground v.1.15,2013-01-20 18:37:00,
2013-01-20 13:38:00,63.4,37.3,29.96,WSW,255,1.0,8.0,38,0.00,,,0.00,Wunderground v.1.15,2013-01-20 18:38:00,
2013-01-20 13:40:00,63.4,37.3,29.95,NNW,329,3.0,6.0,38,0.00,,,0.00,Wunderground v.1.15,2013-01-20 18:40:00,
2013-01-20 13:41:00,63.4,37.3,29.95,NW,310,4.0,6.0,38,0.00,,,0.00,Wunderground v.1.15,2013-01-20 18:41:00,
2013-01-20 13:42:00,63.4,37.3,29.95,NW,326,3.0,6.0,38,0.00,,,0.00,Wunderground v.1.15,2013-01-20 18:42:00,
2013-01-20 13:43:00,63.5,37.4,29.95,SW,233,1.0,6.0,38,0.00,,,0.00,Wunderground v.1.15,2013-01-20 18:43:00,
2013-01-20 13:46:00,63.5,37.4,29.95,SSE,163,2.0,7.0,38,0.00,,,0.00,Wunderground v.1.15,2013-01-20 18:46:00,
2013-01-20 13:47:00,63.7,37.6,29.95,SSW,205,1.0,7.0,38,0.00,,,0.00,Wunderground v.1.15,2013-01-20 18:47:00,
2013-01-20 13:48:00,63.8,37.7,29.95,WSW,250,0.0,7.0,38,0.00,,,0.00,Wunderground v.1.15,2013-01-20 18:48:00,
2013-01-20 13:51:00,63.9,37.1,29.95,SSW,200,2.0,7.0,37,0.00,,,0.00,Wunderground v.1.15,2013-01-20 18:51:00,
2013-01-20 13:52:00,63.9,37.1,29.95,ENE,62,2.0,7.0,37,0.00,,,0.00,Wunderground v.1.15,2013-01-20 18:52:00,
2013-01-20 13:53:00,64.0,37.9,29.95,SSE,149,1.0,7.0,38,0.00,,,0.00,Wunderground v.1.15,2013-01-20 18:53:00,
2013-01-20 13:56:00,64.1,37.3,29.95,North,354,2.0,7.0,37,0.00,,,0.00,Wunderground v.1.15,2013-01-20 18:56:00,
2013-01-20 13:58:00,64.1,37.3,29.95,NE,51,1.0,7.0,37,0.00,,,0.00,Wunderground v.1.15,2013-01-20 18:58:00,
2013-01-20 13:59:00,64.1,38.0,29.95,WNW,282,3.0,7.0,38,0.00,,,0.00,Wunderground v.1.15,2013-01-20 18:59:00,
2013-01-20 14:02:00,64.1,38.0,29.95,SE,145,0.0,4.0,38,0.00,,,0.00,Wunderground v.1.15,2013-01-20 19:02:00,
2013-01-20 14:03:00,64.1,38.0,29.95,West,269,3.0,4.0,38,0.00,,,0.00,Wunderground v.1.15,2013-01-20 19:03:00,
2013-01-20 14:04:00,64.2,37.4,29.95,SW,219,2.0,4.0,37,0.00,,,0.00,Wunderground v.1.15,2013-01-20 19:04:00,
2013-01-20 14:07:00,64.3,37.5,29.94,NE,56,2.0,6.0,37,0.00,,,0.00,Wunderground v.1.15,2013-01-20 19:07:00,
2013-01-20 14:08:00,64.4,38.2,29.94,SW,233,2.0,6.0,38,0.00,,,0.00,Wunderground v.1.15,2013-01-20 19:08:00,
2013-01-20 14:09:00,64.4,36.8,29.95,WSW,256,4.0,7.0,36,0.00,,,0.00,Wunderground v.1.15,2013-01-20 19:09:00,
2013-01-20 14:12:00,64.5,36.9,29.94,WSW,238,5.0,5.0,36,0.00,,,0.00,Wunderground v.1.15,2013-01-20 19:12:00,
2013-01-20 14:13:00,64.6,37.0,29.95,SW,229,2.0,5.0,36,0.00,,,0.00,Wunderground v.1.15,2013-01-20 19:13:00,
2013-01-20 14:14:00,64.6,37.0,29.95,WSW,240,2.0,5.0,36,0.00,,,0.00,Wunderground v.1.15,2013-01-20 19:14:00,
2013-01-20 14:17:00,64.5,36.2,29.94,NNW,333,5.0,12.0,35,0.00,,,0.00,Wunderground v.1.15,2013-01-20 19:17:00,
2013-01-20 14:18:00,64.4,35.4,29.94,SW,229,4.0,12.0,34,0.00,,,0.00,Wunderground v.1.15,2013-01-20 19:18:00,
2013-01-20 14:19:00,64.5,36.2,29.94,SW,214,5.0,12.0,35,0.00,,,0.00,Wunderground v.1.15,2013-01-20 19:19:00,
2013-01-20 14:22:00,64.6,35.6,29.94,SW,233,1.0,3.0,34,0.00,,,0.00,Wunderground v.1.15,2013-01-20 19:22:00,
2013-01-20 14:23:00,64.6,35.6,29.95,ESE,117,2.0,4.0,34,0.00,,,0.00,Wunderground v.1.15,2013-01-20 19:23:00,
2013-01-20 14:24:00,64.6,35.6,29.94,SSW,204,1.0,7.0,34,0.00,,,0.00,Wunderground v.1.15,2013-01-20 19:24:00,
2013-01-20 14:27:00,64.5,34.7,29.94,WSW,247,0.0,8.0,33,0.00,,,0.00,Wunderground v.1.15,2013-01-20 19:27:00,
2013-01-20 14:28:00,64.6,34.8,29.94,WSW,245,1.0,8.0,33,0.00,,,0.00,Wunderground v.1.15,2013-01-20 19:28:00,
2013-01-20 14:29:00,64.6,35.6,29.94,NNE,20,3.0,11.0,34,0.00,,,0.00,Wunderground v.1.15,2013-01-20 19:29:00,
2013-01-20 14:32:00,64.5,34.7,29.94,SW,225,3.0,9.0,33,0.00,,,0.00,Wunderground v.1.15,2013-01-20 19:32:00,
2013-01-20 14:33:00,64.5,34.7,29.94,ENE,68,3.0,9.0,33,0.00,,,0.00,Wunderground v.1.15,2013-01-20 19:33:00,
2013-01-20 14:34:00,64.5,34.7,29.94,WSW,238,3.0,9.0,33,0.00,,,0.00,Wunderground v.1.15,2013-01-20 19:34:00,
2013-01-20 14:35:00,64.5,34.7,29.94,South,177,2.0,9.0,33,0.00,,,0.00,Wunderground v.1.15,2013-01-20 19:35:00,
2013-01-20 14:37:00,64.5,34.7,29.94,SSW,207,2.0,9.0,33,0.00,,,0.00,Wunderground v.1.15,2013-01-20 19:37:00,
2013-01-20 14:38:00,64.5,35.5,29.94,SSW,205,1.0,9.0,34,0.00,,,0.00,Wunderground v.1.15,2013-01-20 19:38:00,
2013-01-20 14:39:00,64.6,35.6,29.94,NE,34,5.0,9.0,34,0.00,,,0.00,Wunderground v.1.15,2013-01-20 19:39:00,
2013-01-20 14:40:00,64.6,35.6,29.94,SW,236,6.0,6.0,34,0.00,,,0.00,Wunderground v.1.15,2013-01-20 19:40:00,
2013-01-20 14:42:00,64.6,34.8,29.94,SW,217,2.0,6.0,33,0.00,,,0.00,Wunderground v.1.15,2013-01-20 19:42:00,
2013-01-20 14:43:00,64.7,34.9,29.94,SSE,158,3.0,6.0,33,0.00,,,0.00,Wunderground v.1.15,2013-01-20 19:43:00,
2013-01-20 14:44:00,64.7,34.9,29.94,South,191,2.0,6.0,33,0.00,,,0.00,Wunderground v.1.15,2013-01-20 19:44:00,
2013-01-20 14:45:00,64.7,34.9,29.94,SW,215,2.0,6.0,33,0.00,,,0.00,Wunderground v.1.15,2013-01-20 19:45:00,
2013-01-20 14:47:00,64.8,35.0,29.94,SE,146,1.0,6.0,33,0.00,,,0.00,Wunderground v.1.15,2013-01-20 19:47:00,
2013-01-20 14:48:00,64.8,35.8,29.94,WSW,238,1.0,6.0,34,0.00,,,0.00,Wunderground v.1.15,2013-01-20 19:48:00,
2013-01-20 14:49:00,64.9,35.1,29.94,SSE,152,4.0,6.0,33,0.00,,,0.00,Wunderground v.1.15,2013-01-20 19:49:00,
2013-01-20 14:50:00,64.9,35.8,29.94,NNW,328,0.0,3.0,34,0.00,,,0.00,Wunderground v.1.15,2013-01-20 19:50:00,
2013-01-20 14:52:00,65.0,35.9,29.94,NNW,335,0.0,3.0,34,0.00,,,0.00,Wunderground v.1.15,2013-01-20 19:52:00,
2013-01-20 14:53:00,65.0,35.9,29.94,NNW,334,0.0,3.0,34,0.00,,,0.00,Wunderground v.1.15,2013-01-20 19:53:00,
2013-01-20 14:54:00,65.1,36.0,29.94,NW,325,0.0,3.0,34,0.00,,,0.00,Wunderground v.1.15,2013-01-20 19:54:00,
2013-01-20 14:55:00,65.2,36.1,29.94,WSW,255,0.0,3.0,34,0.00,,,0.00,Wunderground v.1.15,2013-01-20 19:55:00,
2013-01-20 14:58:00,65.3,35.4,29.94,SW,225,1.0,7.0,33,0.00,,,0.00,Wunderground v.1.15,2013-01-20 19:58:00,
2013-01-20 14:59:00,65.3,35.4,29.94,SSW,211,1.0,7.0,33,0.00,,,0.00,Wunderground v.1.15,2013-01-20 19:59:00,
2013-01-20 15:00:00,65.4,35.5,29.94,SSW,203,1.0,2.0,33,0.00,,,0.00,Wunderground v.1.15,2013-01-20 20:00:00,
2013-01-20 15:03:00,65.5,34.8,29.94,SE,143,2.0,4.0,32,0.00,,,0.00,Wunderground v.1.15,2013-01-20 20:03:00,
2013-01-20 15:04:00,65.5,34.8,29.94,SE,129,2.0,4.0,32,0.00,,,0.00,Wunderground v.1.15,2013-01-20 20:04:00,
2013-01-20 15:05:00,65.4,34.8,29.94,South,190,1.0,4.0,32,0.00,,,0.00,Wunderground v.1.15,2013-01-20 20:05:00,
2013-01-20 15:08:00,65.4,35.5,29.94,SSW,205,1.0,4.0,33,0.00,,,0.00,Wunderground v.1.15,2013-01-20 20:08:00,
2013-01-20 15:09:00,65.4,34.8,29.94,SW,217,4.0,5.0,32,0.00,,,0.00,Wunderground v.1.15,2013-01-20 20:09:00,
2013-01-20 15:11:00,65.2,34.6,29.94,South,186,1.0,4.0,32,0.00,,,0.00,Wunderground v.1.15,2013-01-20 20:11:00,
2013-01-20 15:13:00,65.1,35.3,29.94,SSW,207,1.0,6.0,33,0.00,,,0.00,Wunderground v.1.15,2013-01-20 20:13:00,
2013-01-20 15:14:00,65.0,35.2,29.94,SSW,208,1.0,6.0,33,0.00,,,0.00,Wunderground v.1.15,2013-01-20 20:14:00,
2013-01-20 15:16:00,65.1,35.3,29.94,SW,232,0.0,6.0,33,0.00,,,0.00,Wunderground v.1.15,2013-01-20 20:16:00,
2013-01-20 15:18:00,65.2,35.4,29.94,SSW,197,2.0,6.0,33,0.00,,,0.00,Wunderground v.1.15,2013-01-20 20:18:00,
2013-01-20 15:19:00,65.2,35.4,29.94,SW,230,2.0,6.0,33,0.00,,,0.00,Wunderground v.1.15,2013-01-20 20:19:00,
2013-01-20 15:20:00,65.2,35.4,29.94,SW,214,2.0,2.0,33,0.00,,,0.00,Wunderground v.1.15,2013-01-20 20:20:00,
2013-01-20 15:21:00,65.1,35.3,29.94,SW,224,3.0,3.0,33,0.00,,,0.00,Wunderground v.1.15,2013-01-20 20:21:00,
2013-01-20 15:23:00,65.0,35.9,29.94,SW,236,2.0,3.0,34,0.00,,,0.00,Wunderground v.1.15,2013-01-20 20:23:00,
2013-01-20 15:24:00,64.9,35.1,29.94,WNW,300,3.0,5.0,33,0.00,,,0.00,Wunderground v.1.15,2013-01-20 20:24:00,
2013-01-20 15:25:00,64.8,35.0,29.94,ESE,113,1.0,5.0,33,0.00,,,0.00,Wunderground v.1.15,2013-01-20 20:25:00,
2013-01-20 15:26:00,64.8,35.0,29.94,SW,225,1.0,5.0,33,0.00,,,0.00,Wunderground v.1.15,2013-01-20 20:26:00,
2013-01-20 15:29:00,64.5,35.5,29.94,SSW,201,1.0,5.0,34,0.00,,,0.00,Wunderground v.1.15,2013-01-20 20:29:00,
2013-01-20 15:30:00,64.5,35.5,29.94,South,176,2.0,2.0,34,0.00,,,0.00,Wunderground v.1.15,2013-01-20 20:30:00,
2013-01-20 15:31:00,64.5,35.5,29.94,South,176,3.0,4.0,34,0.00,,,0.00,Wunderground v.1.15,2013-01-20 20:31:00,
2013-01-20 15:34:00,64.3,35.3,29.94,SSW,204,1.0,4.0,34,0.00,,,0.00,Wunderground v.1.15,2013-01-20 20:34:00,
2013-01-20 15:35:00,64.2,35.2,29.94,NE,49,4.0,5.0,34,0.00,,,0.00,Wunderground v.1.15,2013-01-20 20:35:00,
2013-01-20 15:36:00,64.1,35.1,29.94,SSW,193,2.0,5.0,34,0.00,,,0.00,Wunderground v.1.15,2013-01-20 20:36:00,
2013-01-20 15:39:00,63.8,34.9,29.94,WSW,238,2.0,5.0,34,0.00,,,0.00,Wunderground v.1.15,2013-01-20 20:39:00,
2013-01-20 15:40:00,63.8,35.6,29.94,South,190,1.0,2.0,35,0.00,,,0.00,Wunderground v.1.15,2013-01-20 20:40:00,
2013-01-20 15:41:00,63.7,35.5,29.94,SSW,197,1.0,4.0,35,0.00,,,0.00,Wunderground v.1.15,2013-01-20 20:41:00,
2013-01-20 15:44:00,63.5,35.3,29.94,SSW,193,1.0,6.0,35,0.00,,,0.00,Wunderground v.1.15,2013-01-20 20:44:00,
2013-01-20 15:45:00,63.5,35.3,29.95,South,188,1.0,6.0,35,0.00,,,0.00,Wunderground v.1.15,2013-01-20 20:45:00,
2013-01-20 15:46:00,63.5,36.0,29.95,WSW,238,0.0,6.0,36,0.00,,,0.00,Wunderground v.1.15,2013-01-20 20:46:00,
2013-01-20 15:49:00,63.4,35.2,29.95,East,96,3.0,6.0,35,0.00,,,0.00,Wunderground v.1.15,2013-01-20 20:49:00,
2013-01-20 15:50:00,63.4,35.2,29.95,WSW,248,2.0,6.0,35,0.00,,,0.00,Wunderground v.1.15,2013-01-20 20:50:00,
2013-01-20 15:51:00,63.3,35.9,29.95,WSW,245,1.0,6.0,36,0.00,,,0.00,Wunderground v.1.15,2013-01-20 20:51:00,
2013-01-20 15:54:00,63.2,35.1,29.95,WNW,286,3.0,6.0,35,0.00,,,0.00,Wunderground v.1.15,2013-01-20 20:54:00,
2013-01-20 15:55:00,63.2,35.1,29.95,SSW,193,0.0,6.0,35,0.00,,,0.00,Wunderground v.1.15,2013-01-20 20:55:00,
2013-01-20 15:56:00,63.2,35.8,29.95,SW,226,2.0,6.0,36,0.00,,,0.00,Wunderground v.1.15,2013-01-20 20:56:00,
2013-01-20 15:59:00,63.1,35.7,29.95,SW,222,2.0,6.0,36,0.00,,,0.00,Wunderground v.1.15,2013-01-20 20:59:00,
2013-01-20 16:01:00,63.1,35.7,29.95,SW,233,3.0,3.0,36,0.00,,,0.00,Wunderground v.1.15,2013-01-20 21:01:00,
2013-01-20 16:04:00,63.0,35.6,29.95,East,89,0.0,6.0,36,0.00,,,0.00,Wunderground v.1.15,2013-01-20 21:04:00,
2013-01-20 16:06:00,62.9,35.5,29.95,SW,219,1.0,6.0,36,0.00,,,0.00,Wunderground v.1.15,2013-01-20 21:06:00,
2013-01-20 16:10:00,62.9,35.5,29.95,WSW,245,2.0,2.0,36,0.00,,,0.00,Wunderground v.1.15,2013-01-20 21:10:00,
2013-01-20 16:11:00,62.9,34.8,29.95,SW,231,1.0,6.0,35,0.00,,,0.00,Wunderground v.1.15,2013-01-20 21:11:00,
2013-01-20 16:12:00,62.9,34.8,29.95,SSE,156,3.0,6.0,35,0.00,,,0.00,Wunderground v.1.15,2013-01-20 21:12:00,
2013-01-20 16:15:00,62.7,34.6,29.95,WSW,257,1.0,6.0,35,0.00,,,0.00,Wunderground v.1.15,2013-01-20 21:15:00,
2013-01-20 16:16:00,62.7,34.6,29.95,WNW,290,2.0,6.0,35,0.00,,,0.00,Wunderground v.1.15,2013-01-20 21:16:00,
2013-01-20 16:17:00,62.7,34.6,29.95,WSW,257,2.0,6.0,35,0.00,,,0.00,Wunderground v.1.15,2013-01-20 21:17:00,
2013-01-20 16:20:00,62.7,34.6,29.95,SW,229,1.0,2.0,35,0.00,,,0.00,Wunderground v.1.15,2013-01-20 21:20:00,
2013-01-20 16:22:00,62.7,34.6,29.95,NNE,25,4.0,4.0,35,0.00,,,0.00,Wunderground v.1.15,2013-01-20 21:22:00,
2013-01-20 16:25:00,62.7,34.6,29.95,WSW,257,3.0,6.0,35,0.00,,,0.00,Wunderground v.1.15,2013-01-20 21:25:00,
2013-01-20 16:27:00,62.8,34.7,29.95,SSW,208,0.0,6.0,35,0.00,,,0.00,Wunderground v.1.15,2013-01-20 21:27:00,
2013-01-20 16:28:00,62.8,34.7,29.95,West,262,2.0,6.0,35,0.00,,,0.00,Wunderground v.1.15,2013-01-20 21:28:00,
2013-01-20 16:30:00,62.8,34.7,29.95,West,271,2.0,6.0,35,0.00,,,0.00,Wunderground v.1.15,2013-01-20 21:30:00,
2013-01-20 16:32:00,62.6,34.5,29.95,ESE,123,0.0,6.0,35,0.00,,,0.00,Wunderground v.1.15,2013-01-20 21:32:00,
2013-01-20 16:33:00,62.6,34.5,29.95,WSW,238,1.0,6.0,35,0.00,,,0.00,Wunderground v.1.15,2013-01-20 21:33:00,
2013-01-20 16:35:00,62.4,35.1,29.95,NNW,338,3.0,6.0,36,0.00,,,0.00,Wunderground v.1.15,2013-01-20 21:35:00,
2013-01-20 16:38:00,62.5,35.2,29.95,SW,229,2.0,6.0,36,0.00,,,0.00,Wunderground v.1.15,2013-01-20 21:38:00,
2013-01-20 16:40:00,62.6,35.3,29.95,WSW,255,3.0,3.0,36,0.00,,,0.00,Wunderground v.1.15,2013-01-20 21:40:00,
2013-01-20 16:43:00,62.6,34.5,29.95,West,275,1.0,3.0,35,0.00,,,0.00,Wunderground v.1.15,2013-01-20 21:43:00,
2013-01-20 16:46:00,62.5,34.5,29.95,WSW,256,2.0,3.0,35,0.00,,,0.00,Wunderground v.1.15,2013-01-20 21:46:00,
2013-01-20 16:48:00,62.3,35.0,29.95,WNW,291,3.0,5.0,36,0.00,,,0.00,Wunderground v.1.15,2013-01-20 21:48:00,
2013-01-20 16:51:00,62.1,34.8,29.95,West,278,1.0,2.0,36,0.00,,,0.00,Wunderground v.1.15,2013-01-20 21:51:00,
2013-01-20 16:53:00,61.9,34.6,29.95,WNW,301,0.0,2.0,36,0.00,,,0.00,Wunderground v.1.15,2013-01-20 21:53:00,
2013-01-20 16:54:00,61.8,34.5,29.95,West,274,2.0,2.0,36,0.00,,,0.00,Wunderground v.1.15,2013-01-20 21:54:00,
2013-01-20 16:56:00,61.7,34.5,29.95,SW,228,1.0,3.0,36,0.00,,,0.00,Wunderground v.1.15,2013-01-20 21:56:00,
2013-01-20 16:58:00,61.5,34.3,29.95,SSW,208,0.0,3.0,36,0.00,,,0.00,Wunderground v.1.15,2013-01-20 21:58:00,
2013-01-20 16:59:00,61.5,34.3,29.95,SSW,208,0.0,3.0,36,0.00,,,0.00,Wunderground v.1.15,2013-01-20 21:59:00,
2013-01-20 17:01:00,61.4,34.2,29.95,West,281,3.0,4.0,36,0.00,,,0.00,Wunderground v.1.15,2013-01-20 22:01:00,
2013-01-20 17:04:00,61.1,33.9,29.95,WSW,240,0.0,4.0,36,0.00,,,0.00,Wunderground v.1.15,2013-01-20 22:04:00,
2013-01-20 17:06:00,61.0,34.5,29.95,WSW,240,0.0,4.0,37,0.00,,,0.00,Wunderground v.1.15,2013-01-20 22:06:00,
2013-01-20 17:09:00,60.8,35.0,29.95,SW,225,0.0,4.0,38,0.00,,,0.00,Wunderground v.1.15,2013-01-20 22:09:00,
2013-01-20 17:11:00,60.6,34.8,29.95,SW,225,0.0,1.0,38,0.00,,,0.00,Wunderground v.1.15,2013-01-20 22:11:00,
2013-01-20 17:14:00,60.3,34.6,29.95,SW,225,0.0,1.0,38,0.00,,,0.00,Wunderground v.1.15,2013-01-20 22:14:00,
2013-01-20 17:17:00,60.0,34.3,29.96,WSW,255,0.0,1.0,38,0.00,,,0.00,Wunderground v.1.15,2013-01-20 22:17:00,
2013-01-20 17:19:00,59.8,34.1,29.96,WSW,243,1.0,1.0,38,0.00,,,0.00,Wunderground v.1.15,2013-01-20 22:19:00,
2013-01-20 17:20:00,59.8,34.8,29.96,West,267,1.0,1.0,39,0.00,,,0.00,Wunderground v.1.15,2013-01-20 22:20:00,
2013-01-20 17:22:00,59.5,34.5,29.96,WSW,252,0.0,2.0,39,0.00,,,0.00,Wunderground v.1.15,2013-01-20 22:22:00,
2013-01-20 17:24:00,59.4,35.1,29.96,WSW,240,0.0,3.0,40,0.00,,,0.00,Wunderground v.1.15,2013-01-20 22:24:00,
2013-01-20 17:25:00,59.3,35.0,29.96,WSW,240,0.0,3.0,40,0.00,,,0.00,Wunderground v.1.15,2013-01-20 22:25:00,
2013-01-20 17:28:00,59.0,34.7,29.96,WSW,240,0.0,3.0,40,0.00,,,0.00,Wunderground v.1.15,2013-01-20 22:28:00,
2013-01-20 17:29:00,58.9,34.6,29.96,WSW,240,0.0,3.0,40,0.00,,,0.00,Wunderground v.1.15,2013-01-20 22:29:00,
2013-01-20 17:30:00,58.9,34.6,29.96,SW,226,0.0,0.0,40,0.00,,,0.00,Wunderground v.1.15,2013-01-20 22:30:00,
2013-01-20 17:33:00,58.6,34.3,29.97,SW,226,1.0,1.0,40,0.00,,,0.00,Wunderground v.1.15,2013-01-20 22:33:00,
2013-01-20 17:34:00,58.5,34.9,29.97,SW,226,1.0,1.0,41,0.00,,,0.00,Wunderground v.1.15,2013-01-20 22:34:00,
2013-01-20 17:35:00,58.4,34.8,29.97,SW,226,0.0,1.0,41,0.00,,,0.00,Wunderground v.1.15,2013-01-20 22:35:00,
2013-01-20 17:38:00,58.1,34.5,29.97,SW,227,0.0,1.0,41,0.00,,,0.00,Wunderground v.1.15,2013-01-20 22:38:00,
2013-01-20 17:39:00,58.1,34.5,29.97,SW,226,0.0,1.0,41,0.00,,,0.00,Wunderground v.1.15,2013-01-20 22:39:00,
2013-01-20 17:40:00,58.0,34.4,29.97,SW,226,0.0,0.0,41,0.00,,,0.00,Wunderground v.1.15,2013-01-20 22:40:00,
2013-01-20 17:43:00,57.7,34.7,29.97,SW,226,0.0,0.0,42,0.00,,,0.00,Wunderground v.1.15,2013-01-20 22:43:00,
2013-01-20 17:44:00,57.6,34.1,29.97,SW,226,0.0,0.0,41,0.00,,,0.00,Wunderground v.1.15,2013-01-20 22:44:00,
2013-01-20 17:45:00,57.6,34.1,29.97,SW,226,0.0,0.0,41,0.00,,,0.00,Wunderground v.1.15,2013-01-20 22:45:00,
2013-01-20 17:48:00,57.3,34.4,29.97,SW,226,0.0,0.0,42,0.00,,,0.00,Wunderground v.1.15,2013-01-20 22:48:00,
2013-01-20 17:49:00,57.1,34.2,29.97,SW,226,0.0,0.0,42,0.00,,,0.00,Wunderground v.1.15,2013-01-20 22:49:00,
2013-01-20 17:50:00,57.0,35.3,29.97,SW,226,0.0,0.0,44,0.00,,,0.00,Wunderground v.1.15,2013-01-20 22:50:00,
2013-01-20 17:53:00,56.7,35.6,29.97,SW,226,0.0,0.0,45,0.00,,,0.00,Wunderground v.1.15,2013-01-20 22:53:00,
2013-01-20 17:54:00,56.5,35.4,29.98,SW,226,0.0,0.0,45,0.00,,,0.00,Wunderground v.1.15,2013-01-20 22:54:00,
2013-01-20 17:55:00,56.4,36.4,29.98,SW,226,0.0,0.0,47,0.00,,,0.00,Wunderground v.1.15,2013-01-20 22:55:00,
2013-01-20 17:58:00,56.0,35.5,29.98,SW,226,0.0,0.0,46,0.00,,,0.00,Wunderground v.1.15,2013-01-20 22:58:00,
2013-01-20 18:00:00,55.9,35.4,29.98,SW,228,0.0,0.0,46,0.00,,,0.00,Wunderground v.1.15,2013-01-20 23:00:00,
2013-01-20 18:01:00,55.7,36.3,29.98,SW,226,0.0,0.0,48,0.00,,,0.00,Wunderground v.1.15,2013-01-20 23:01:00,
2013-01-20 18:04:00,55.3,36.5,29.98,SW,226,0.0,0.0,49,0.00,,,0.00,Wunderground v.1.15,2013-01-20 23:04:00,
2013-01-20 18:05:00,55.3,35.9,29.98,SW,228,0.0,0.0,48,0.00,,,0.00,Wunderground v.1.15,2013-01-20 23:05:00,
2013-01-20 18:06:00,55.1,35.7,29.98,SW,226,0.0,0.0,48,0.00,,,0.00,Wunderground v.1.15,2013-01-20 23:06:00,
2013-01-20 18:09:00,54.8,36.0,29.98,SW,226,0.0,0.0,49,0.00,,,0.00,Wunderground v.1.15,2013-01-20 23:09:00,
2013-01-20 18:10:00,54.7,35.9,29.98,SW,226,0.0,0.0,49,0.00,,,0.00,Wunderground v.1.15,2013-01-20 23:10:00,
2013-01-20 18:12:00,54.6,35.3,29.98,SW,226,0.0,1.0,48,0.00,,,0.00,Wunderground v.1.15,2013-01-20 23:12:00,
2013-01-20 18:14:00,54.5,36.7,29.98,SW,226,0.0,1.0,51,0.00,,,0.00,Wunderground v.1.15,2013-01-20 23:14:00,
2013-01-20 18:15:00,54.4,36.1,29.99,SW,226,0.0,1.0,50,0.00,,,0.00,Wunderground v.1.15,2013-01-20 23:15:00,
2013-01-20 18:16:00,54.3,36.0,29.99,SW,226,0.0,1.0,50,0.00,,,0.00,Wunderground v.1.15,2013-01-20 23:16:00,
2013-01-20 18:17:00,54.2,35.9,29.99,SW,226,0.0,1.0,50,0.00,,,0.00,Wunderground v.1.15,2013-01-20 23:17:00,
2013-01-20 18:20:00,53.9,36.2,29.99,SW,226,0.0,0.0,51,0.00,,,0.00,Wunderground v.1.15,2013-01-20 23:20:00,
2013-01-20 18:21:00,53.8,36.6,29.99,SW,226,0.0,0.0,52,0.00,,,0.00,Wunderground v.1.15,2013-01-20 23:21:00,
2013-01-20 18:22:00,53.6,36.9,29.99,SW,226,0.0,0.0,53,0.00,,,0.00,Wunderground v.1.15,2013-01-20 23:22:00,
2013-01-20 18:25:00,53.4,36.7,29.99,SW,226,0.0,1.0,53,0.00,,,0.00,Wunderground v.1.15,2013-01-20 23:25:00,
2013-01-20 18:26:00,53.3,36.1,29.99,SW,226,0.0,1.0,52,0.00,,,0.00,Wunderground v.1.15,2013-01-20 23:26:00,
2013-01-20 18:28:00,53.2,36.0,29.99,SW,226,0.0,1.0,52,0.00,,,0.00,Wunderground v.1.15,2013-01-20 23:28:00,
2013-01-20 18:30:00,53.0,36.8,29.99,SW,226,0.0,0.0,54,0.00,,,0.00,Wunderground v.1.15,2013-01-20 23:30:00,
2013-01-20 18:31:00,53.0,36.8,29.99,SW,226,0.0,0.0,54,0.00,,,0.00,Wunderground v.1.15,2013-01-20 23:31:00,
2013-01-20 18:33:00,52.8,37.1,29.99,SW,228,0.0,0.0,55,0.00,,,0.00,Wunderground v.1.15,2013-01-20 23:33:00,
2013-01-20 18:35:00,52.7,37.0,29.99,SW,229,0.0,0.0,55,0.00,,,0.00,Wunderground v.1.15,2013-01-20 23:35:00,
2013-01-20 18:37:00,52.6,36.4,29.99,SW,228,0.0,0.0,54,0.00,,,0.00,Wunderground v.1.15,2013-01-20 23:37:00,
2013-01-20 18:38:00,52.5,36.3,30.00,SW,228,0.0,0.0,54,0.00,,,0.00,Wunderground v.1.15,2013-01-20 23:38:00,
2013-01-20 18:40:00,52.4,36.2,29.99,SW,228,0.0,0.0,54,0.00,,,0.00,Wunderground v.1.15,2013-01-20 23:40:00,
2013-01-20 18:42:00,52.2,36.5,30.00,SW,229,0.0,0.0,55,0.00,,,0.00,Wunderground v.1.15,2013-01-20 23:42:00,
2013-01-20 18:43:00,52.1,36.4,30.00,SW,228,0.0,0.0,55,0.00,,,0.00,Wunderground v.1.15,2013-01-20 23:43:00,
2013-01-20 18:45:00,51.9,36.2,30.00,SW,228,0.0,0.0,55,0.00,,,0.00,Wunderground v.1.15,2013-01-20 23:45:00,
2013-01-20 18:46:00,51.9,36.2,30.00,SW,228,0.0,0.0,55,0.00,,,0.00,Wunderground v.1.15,2013-01-20 23:46:00,
2013-01-20 18:47:00,51.8,36.6,30.00,SW,228,0.0,0.0,56,0.00,,,0.00,Wunderground v.1.15,2013-01-20 23:47:00,
2013-01-20 18:48:00,51.7,36.5,30.00,SW,228,0.0,0.0,56,0.00,,,0.00,Wunderground v.1.15,2013-01-20 23:48:00,
2013-01-20 18:50:00,51.4,36.2,30.00,SW,228,0.0,0.0,56,0.00,,,0.00,Wunderground v.1.15,2013-01-20 23:50:00,
2013-01-20 18:52:00,51.2,36.0,30.00,SW,228,0.0,0.0,56,0.00,,,0.00,Wunderground v.1.15,2013-01-20 23:52:00,
2013-01-20 18:53:00,51.1,35.9,30.00,SW,228,0.0,0.0,56,0.00,,,0.00,Wunderground v.1.15,2013-01-20 23:53:00,
2013-01-20 18:55:00,50.8,36.1,30.00,SW,228,0.0,0.0,57,0.00,,,0.00,Wunderground v.1.15,2013-01-20 23:55:00,
2013-01-20 18:58:00,50.5,35.8,30.00,SW,228,0.0,0.0,57,0.00,,,0.00,Wunderground v.1.15,2013-01-20 23:58:00,
2013-01-20 19:00:00,50.2,36.4,30.00,SW,229,0.0,0.0,59,0.00,,,0.00,Wunderground v.1.15,2013-01-21 00:00:00,
2013-01-20 19:03:00,49.9,36.1,30.00,SW,229,0.0,0.0,59,0.00,,,0.00,Wunderground v.1.15,2013-01-21 00:03:00,
2013-01-20 19:05:00,49.7,35.9,30.00,SW,228,0.0,0.0,59,0.00,,,0.00,Wunderground v.1.15,2013-01-21 00:05:00,
2013-01-20 19:08:00,49.6,36.3,30.00,SW,228,0.0,0.0,60,0.00,,,0.00,Wunderground v.1.15,2013-01-21 00:08:00,
2013-01-20 19:11:00,49.3,36.0,30.00,SW,228,0.0,0.0,60,0.00,,,0.00,Wunderground v.1.15,2013-01-21 00:11:00,
2013-01-20 19:13:00,49.1,35.8,30.00,SW,228,0.0,0.0,60,0.00,,,0.00,Wunderground v.1.15,2013-01-21 00:13:00,
2013-01-20 19:16:00,48.9,36.4,30.00,SW,228,0.0,0.0,62,0.00,,,0.00,Wunderground v.1.15,2013-01-21 00:16:00,
2013-01-20 19:19:00,48.6,36.2,30.00,SW,228,0.0,0.0,62,0.00,,,0.00,Wunderground v.1.15,2013-01-21 00:19:00,
2013-01-20 19:21:00,48.4,36.0,30.00,SW,228,0.0,0.0,62,0.00,,,0.00,Wunderground v.1.15,2013-01-21 00:21:00,
2013-01-20 19:24:00,48.3,36.3,30.00,SW,228,0.0,1.0,63,0.00,,,0.00,Wunderground v.1.15,2013-01-21 00:24:00,
2013-01-20 19:26:00,48.2,36.2,30.00,SW,228,0.0,1.0,63,0.00,,,0.00,Wunderground v.1.15,2013-01-21 00:26:00,
2013-01-20 19:29:00,48.1,35.7,30.01,SW,228,0.0,1.0,62,0.00,,,0.00,Wunderground v.1.15,2013-01-21 00:29:00,
2013-01-20 19:31:00,48.0,35.6,30.01,SW,228,0.0,0.0,62,0.00,,,0.00,Wunderground v.1.15,2013-01-21 00:31:00,
2013-01-20 19:34:00,48.0,35.6,30.01,SW,229,0.0,0.0,62,0.00,,,0.00,Wunderground v.1.15,2013-01-21 00:34:00,
2013-01-20 19:35:00,47.9,35.5,30.00,SW,228,0.0,0.0,62,0.00,,,0.00,Wunderground v.1.15,2013-01-21 00:35:00,
2013-01-20 19:36:00,47.9,35.5,30.00,SW,228,0.0,0.0,62,0.00,,,0.00,Wunderground v.1.15,2013-01-21 00:36:00,
2013-01-20 19:39:00,47.9,35.1,30.01,WNW,283,1.0,1.0,61,0.00,,,0.00,Wunderground v.1.15,2013-01-21 00:39:00,
2013-01-20 19:40:00,47.9,35.5,30.01,WNW,282,1.0,1.0,62,0.00,,,0.00,Wunderground v.1.15,2013-01-21 00:40:00,
2013-01-20 19:41:00,47.9,35.9,30.01,North,349,1.0,1.0,63,0.00,,,0.00,Wunderground v.1.15,2013-01-21 00:41:00,
2013-01-20 19:44:00,47.7,35.7,30.01,NW,319,1.0,3.0,63,0.00,,,0.00,Wunderground v.1.15,2013-01-21 00:44:00,
2013-01-20 19:45:00,47.7,35.3,30.01,NNW,347,1.0,3.0,62,0.00,,,0.00,Wunderground v.1.15,2013-01-21 00:45:00,
2013-01-20 19:47:00,47.7,35.7,30.01,NNW,347,0.0,3.0,63,0.00,,,0.00,Wunderground v.1.15,2013-01-21 00:47:00,
2013-01-20 19:49:00,47.9,35.1,30.01,NNE,13,1.0,4.0,61,0.00,,,0.00,Wunderground v.1.15,2013-01-21 00:49:00,
2013-01-20 19:50:00,48.2,35.0,30.01,NNW,338,1.0,4.0,60,0.00,,,0.00,Wunderground v.1.15,2013-01-21 00:50:00,
2013-01-20 19:51:00,48.3,35.0,30.01,WSW,237,1.0,4.0,60,0.00,,,0.00,Wunderground v.1.15,2013-01-21 00:51:00,
2013-01-20 19:52:00,48.6,34.9,30.01,WSW,239,1.0,4.0,59,0.00,,,0.00,Wunderground v.1.15,2013-01-21 00:52:00,
2013-01-20 19:54:00,49.1,34.9,30.01,WSW,239,0.0,4.0,58,0.00,,,0.00,Wunderground v.1.15,2013-01-21 00:54:00,
2013-01-20 19:55:00,49.3,34.7,30.01,WSW,239,1.0,4.0,57,0.00,,,0.00,Wunderground v.1.15,2013-01-21 00:55:00,
2013-01-20 19:56:00,49.4,34.8,30.01,WSW,239,0.0,4.0,57,0.00,,,0.00,Wunderground v.1.15,2013-01-21 00:56:00,
2013-01-20 19:57:00,49.6,35.0,30.01,NNW,345,0.0,4.0,57,0.00,,,0.00,Wunderground v.1.15,2013-01-21 00:57:00,
2013-01-20 19:59:00,49.8,34.7,30.01,North,8,0.0,4.0,56,0.00,,,0.00,Wunderground v.1.15,2013-01-21 00:59:00,
2013-01-20 20:01:00,50.0,34.9,30.01,NW,312,0.0,1.0,56,0.00,,,0.00,Wunderground v.1.15,2013-01-21 01:01:00,
2013-01-20 20:03:00,50.2,34.6,30.01,NNW,336,1.0,2.0,55,0.00,,,0.00,Wunderground v.1.15,2013-01-21 01:03:00,
2013-01-20 20:05:00,50.4,34.8,30.02,NNE,15,0.0,2.0,55,0.00,,,0.00,Wunderground v.1.15,2013-01-21 01:05:00,
2013-01-20 20:06:00,50.4,34.4,30.02,NNE,14,1.0,2.0,54,0.00,,,0.00,Wunderground v.1.15,2013-01-21 01:06:00,
2013-01-20 20:08:00,50.4,34.4,30.02,NNE,14,1.0,2.0,54,0.00,,,0.00,Wunderground v.1.15,2013-01-21 01:08:00,
2013-01-20 20:10:00,50.4,34.4,30.02,NNE,14,0.0,1.0,54,0.00,,,0.00,Wunderground v.1.15,2013-01-21 01:10:00,
2013-01-20 20:11:00,50.4,34.4,30.02,NNE,14,1.0,2.0,54,0.00,,,0.00,Wunderground v.1.15,2013-01-21 01:11:00,
2013-01-20 20:13:00,50.5,34.0,30.02,NNE,15,0.0,2.0,53,0.00,,,0.00,Wunderground v.1.15,2013-01-21 01:13:00,
2013-01-20 20:15:00,50.5,34.0,30.02,NNE,15,1.0,2.0,53,0.00,,,0.00,Wunderground v.1.15,2013-01-21 01:15:00,
2013-01-20 20:16:00,50.6,34.1,30.02,NNE,15,0.0,2.0,53,0.00,,,0.00,Wunderground v.1.15,2013-01-21 01:16:00,
2013-01-20 20:18:00,50.6,34.1,30.02,NNE,15,0.0,2.0,53,0.00,,,0.00,Wunderground v.1.15,2013-01-21 01:18:00,
2013-01-20 20:20:00,50.6,33.6,30.02,NNE,14,0.0,0.0,52,0.00,,,0.00,Wunderground v.1.15,2013-01-21 01:20:00,
2013-01-20 20:21:00,50.6,34.1,30.02,NNE,14,0.0,1.0,53,0.00,,,0.00,Wunderground v.1.15,2013-01-21 01:21:00,
2013-01-20 20:23:00,50.6,34.1,30.02,NNE,15,0.0,1.0,53,0.00,,,0.00,Wunderground v.1.15,2013-01-21 01:23:00,
2013-01-20 20:24:00,50.6,34.1,30.02,NNE,14,0.0,1.0,53,0.00,,,0.00,Wunderground v.1.15,2013-01-21 01:24:00,
2013-01-20 20:25:00,50.5,34.0,30.02,NNE,14,0.0,1.0,53,0.00,,,0.00,Wunderground v.1.15,2013-01-21 01:25:00,
2013-01-20 20:27:00,50.4,33.9,30.02,NNE,15,0.0,1.0,53,0.00,,,0.00,Wunderground v.1.15,2013-01-21 01:27:00,
2013-01-20 20:28:00,50.3,33.8,30.02,NNE,15,0.0,1.0,53,0.00,,,0.00,Wunderground v.1.15,2013-01-21 01:28:00,
2013-01-20 20:31:00,50.0,34.0,30.02,NNE,14,1.0,1.0,54,0.00,,,0.00,Wunderground v.1.15,2013-01-21 01:31:00,
2013-01-20 20:32:00,49.9,33.9,30.02,NNE,15,0.0,1.0,54,0.00,,,0.00,Wunderground v.1.15,2013-01-21 01:32:00,
2013-01-20 20:33:00,49.8,33.8,30.02,NNE,15,1.0,1.0,54,0.00,,,0.00,Wunderground v.1.15,2013-01-21 01:33:00,
2013-01-20 20:37:00,49.6,34.1,30.03,NNE,15,0.0,1.0,55,0.00,,,0.00,Wunderground v.1.15,2013-01-21 01:37:00,
2013-01-20 20:38:00,49.4,34.3,30.02,NNE,15,0.0,1.0,56,0.00,,,0.00,Wunderground v.1.15,2013-01-21 01:38:00,
2013-01-20 20:39:00,49.3,34.3,30.03,NNE,14,1.0,1.0,56,0.00,,,0.00,Wunderground v.1.15,2013-01-21 01:39:00,
2013-01-20 20:42:00,48.8,34.7,30.03,NNE,15,1.0,1.0,58,0.00,,,0.00,Wunderground v.1.15,2013-01-21 01:42:00,
2013-01-20 20:43:00,48.7,34.6,30.03,North,357,1.0,1.0,58,0.00,,,0.00,Wunderground v.1.15,2013-01-21 01:43:00,
2013-01-20 20:44:00,48.5,34.8,30.03,North,356,1.0,1.0,59,0.00,,,0.00,Wunderground v.1.15,2013-01-21 01:44:00,
2013-01-20 20:47:00,48.1,34.4,30.03,North,355,1.0,2.0,59,0.00,,,0.00,Wunderground v.1.15,2013-01-21 01:47:00,
2013-01-20 20:48:00,48.0,34.8,30.03,North,355,1.0,2.0,60,0.00,,,0.00,Wunderground v.1.15,2013-01-21 01:48:00,
2013-01-20 20:49:00,48.0,34.8,30.03,North,355,1.0,2.0,60,0.00,,,0.00,Wunderground v.1.15,2013-01-21 01:49:00,
2013-01-20 20:52:00,47.7,34.5,30.03,North,355,1.0,1.0,60,0.00,,,0.00,Wunderground v.1.15,2013-01-21 01:52:00,
2013-01-20 20:53:00,47.6,34.0,30.03,North,355,1.0,1.0,59,0.00,,,0.00,Wunderground v.1.15,2013-01-21 01:53:00,
2013-01-20 20:54:00,47.6,34.0,30.03,North,355,0.0,1.0,59,0.00,,,0.00,Wunderground v.1.15,2013-01-21 01:54:00,
2013-01-20 20:58:00,47.3,34.1,30.03,North,355,0.0,1.0,60,0.00,,,0.00,Wunderground v.1.15,2013-01-21 01:58:00,
2013-01-20 20:59:00,47.3,33.7,30.03,North,355,0.0,1.0,59,0.00,,,0.00,Wunderground v.1.15,2013-01-21 01:59:00,
2013-01-20 21:03:00,47.3,33.7,30.03,North,355,0.0,1.0,59,0.00,,,0.00,Wunderground v.1.15,2013-01-21 02:03:00,
2013-01-20 21:04:00,47.3,33.7,30.03,North,355,0.0,1.0,59,0.00,,,0.00,Wunderground v.1.15,2013-01-21 02:04:00,
2013-01-20 21:05:00,47.3,34.1,30.03,North,355,0.0,1.0,60,0.00,,,0.00,Wunderground v.1.15,2013-01-21 02:05:00,
2013-01-20 21:08:00,47.1,33.5,30.03,North,355,0.0,1.0,59,0.00,,,0.00,Wunderground v.1.15,2013-01-21 02:08:00,
2013-01-20 21:09:00,47.1,34.3,30.03,North,355,0.0,1.0,61,0.00,,,0.00,Wunderground v.1.15,2013-01-21 02:09:00,
2013-01-20 21:10:00,47.0,33.8,30.03,North,355,0.0,0.0,60,0.00,,,0.00,Wunderground v.1.15,2013-01-21 02:10:00,
2013-01-20 21:13:00,46.5,33.8,30.03,North,355,0.0,1.0,61,0.00,,,0.00,Wunderground v.1.15,2013-01-21 02:13:00,
2013-01-20 21:14:00,46.5,33.8,30.03,North,355,0.0,1.0,61,0.00,,,0.00,Wunderground v.1.15,2013-01-21 02:14:00,
2013-01-20 21:15:00,46.4,33.7,30.03,North,355,0.0,1.0,61,0.00,,,0.00,Wunderground v.1.15,2013-01-21 02:15:00,
2013-01-20 21:18:00,46.0,34.1,30.04,North,355,0.0,1.0,63,0.00,,,0.00,Wunderground v.1.15,2013-01-21 02:18:00,
2013-01-20 21:19:00,45.9,34.0,30.04,North,355,0.0,1.0,63,0.00,,,0.00,Wunderground v.1.15,2013-01-21 02:19:00,
2013-01-20 21:20:00,45.8,34.3,30.03,North,355,0.0,0.0,64,0.00,,,0.00,Wunderground v.1.15,2013-01-21 02:20:00,
2013-01-20 21:24:00,45.5,33.6,30.04,North,355,0.0,1.0,63,0.00,,,0.00,Wunderground v.1.15,2013-01-21 02:24:00,
2013-01-20 21:25:00,45.4,33.5,30.04,North,355,0.0,1.0,63,0.00,,,0.00,Wunderground v.1.15,2013-01-21 02:25:00,
2013-01-20 21:29:00,45.4,33.5,30.04,North,355,1.0,1.0,63,0.00,,,0.00,Wunderground v.1.15,2013-01-21 02:29:00,
2013-01-20 21:30:00,45.4,33.1,30.04,North,355,0.0,0.0,62,0.00,,,0.00,Wunderground v.1.15,2013-01-21 02:30:00,
2013-01-20 21:32:00,45.4,33.1,30.04,North,355,0.0,1.0,62,0.00,,,0.00,Wunderground v.1.15,2013-01-21 02:32:00,
2013-01-20 21:34:00,45.5,33.2,30.04,North,355,0.0,1.0,62,0.00,,,0.00,Wunderground v.1.15,2013-01-21 02:34:00,
2013-01-20 21:35:00,45.5,33.2,30.04,North,355,0.0,1.0,62,0.00,,,0.00,Wunderground v.1.15,2013-01-21 02:35:00,
2013-01-20 21:37:00,45.4,33.5,30.04,North,355,0.0,1.0,63,0.00,,,0.00,Wunderground v.1.15,2013-01-21 02:37:00,
2013-01-20 21:39:00,45.3,33.8,30.04,North,355,0.0,1.0,64,0.00,,,0.00,Wunderground v.1.15,2013-01-21 02:39:00,
2013-01-20 21:40:00,45.2,33.7,30.04,North,355,0.0,0.0,64,0.00,,,0.00,Wunderground v.1.15,2013-01-21 02:40:00,
2013-01-20 21:42:00,45.0,33.5,30.04,North,355,0.0,0.0,64,0.00,,,0.00,Wunderground v.1.15,2013-01-21 02:42:00,
2013-01-20 21:44:00,44.8,34.1,30.04,North,355,0.0,0.0,66,0.00,,,0.00,Wunderground v.1.15,2013-01-21 02:44:00,
2013-01-20 21:45:00,44.7,34.0,30.04,North,355,0.0,0.0,66,0.00,,,0.00,Wunderground v.1.15,2013-01-21 02:45:00,
2013-01-20 21:46:00,44.7,34.0,30.04,North,355,0.0,0.0,66,0.00,,,0.00,Wunderground v.1.15,2013-01-21 02:46:00,
2013-01-20 21:47:00,44.5,34.6,30.04,North,355,0.0,0.0,68,0.00,,,0.00,Wunderground v.1.15,2013-01-21 02:47:00,
2013-01-20 21:50:00,44.2,34.3,30.04,North,355,0.0,0.0,68,0.00,,,0.00,Wunderground v.1.15,2013-01-21 02:50:00,
2013-01-20 21:51:00,44.1,34.6,30.04,North,355,0.0,0.0,69,0.00,,,0.00,Wunderground v.1.15,2013-01-21 02:51:00,
2013-01-20 21:53:00,43.8,33.9,30.04,North,355,0.0,0.0,68,0.00,,,0.00,Wunderground v.1.15,2013-01-21 02:53:00,
2013-01-20 21:55:00,43.6,33.7,30.04,North,355,0.0,0.0,68,0.00,,,0.00,Wunderground v.1.15,2013-01-21 02:55:00,
2013-01-20 21:56:00,43.6,34.1,30.04,North,355,0.0,0.0,69,0.00,,,0.00,Wunderground v.1.15,2013-01-21 02:56:00,
2013-01-20 21:58:00,43.3,33.4,30.04,North,355,0.0,0.0,68,0.00,,,0.00,Wunderground v.1.15,2013-01-21 02:58:00,
2013-01-20 22:00:00,43.1,34.0,30.04,North,355,1.0,1.0,70,0.00,,,0.00,Wunderground v.1.15,2013-01-21 03:00:00,
2013-01-20 22:01:00,43.1,33.6,30.04,North,355,1.0,1.0,69,0.00,,,0.00,Wunderground v.1.15,2013-01-21 03:01:00,
2013-01-20 22:03:00,43.0,34.2,30.04,North,355,0.0,1.0,71,0.00,,,0.00,Wunderground v.1.15,2013-01-21 03:03:00,
2013-01-20 22:06:00,42.9,33.4,30.04,North,355,0.0,1.0,69,0.00,,,0.00,Wunderground v.1.15,2013-01-21 03:06:00,
2013-01-20 22:08:00,42.8,33.3,30.04,North,355,0.0,1.0,69,0.00,,,0.00,Wunderground v.1.15,2013-01-21 03:08:00,
2013-01-20 22:11:00,42.7,33.6,30.04,North,355,0.0,0.0,70,0.00,,,0.00,Wunderground v.1.15,2013-01-21 03:11:00,
2013-01-20 22:13:00,42.6,34.2,30.04,North,355,0.0,0.0,72,0.00,,,0.00,Wunderground v.1.15,2013-01-21 03:13:00,
2013-01-20 22:16:00,42.4,34.0,30.04,North,355,0.0,0.0,72,0.00,,,0.00,Wunderground v.1.15,2013-01-21 03:16:00,
2013-01-20 22:18:00,42.0,34.0,30.04,North,355,0.0,0.0,73,0.00,,,0.00,Wunderground v.1.15,2013-01-21 03:18:00,
2013-01-20 22:21:00,41.8,34.1,30.04,North,355,0.0,0.0,74,0.00,,,0.00,Wunderground v.1.15,2013-01-21 03:21:00,
2013-01-20 22:23:00,41.6,33.9,30.04,North,355,0.0,0.0,74,0.00,,,0.00,Wunderground v.1.15,2013-01-21 03:23:00,
2013-01-20 22:26:00,41.5,34.2,30.04,North,355,0.0,0.0,75,0.00,,,0.00,Wunderground v.1.15,2013-01-21 03:26:00,
2013-01-20 22:27:00,41.4,34.1,30.04,North,355,0.0,0.0,75,0.00,,,0.00,Wunderground v.1.15,2013-01-21 03:27:00,
2013-01-20 22:28:00,41.3,34.0,30.04,North,355,1.0,1.0,75,0.00,,,0.00,Wunderground v.1.15,2013-01-21 03:28:00,
2013-01-20 22:31:00,41.1,33.4,30.04,North,355,1.0,2.0,74,0.00,,,0.00,Wunderground v.1.15,2013-01-21 03:31:00,
2013-01-20 22:32:00,41.1,33.4,30.04,North,355,1.0,2.0,74,0.00,,,0.00,Wunderground v.1.15,2013-01-21 03:32:00,
2013-01-20 22:34:00,41.1,33.4,30.04,North,355,1.0,2.0,74,0.00,,,0.00,Wunderground v.1.15,2013-01-21 03:34:00,
2013-01-20 22:36:00,41.1,33.4,30.04,North,355,1.0,2.0,74,0.00,,,0.00,Wunderground v.1.15,2013-01-21 03:36:00,
2013-01-20 22:37:00,41.1,33.8,30.04,North,355,1.0,2.0,75,0.00,,,0.00,Wunderground v.1.15,2013-01-21 03:37:00,
2013-01-20 22:39:00,41.1,33.1,30.04,North,355,0.0,2.0,73,0.00,,,0.00,Wunderground v.1.15,2013-01-21 03:39:00,
2013-01-20 22:42:00,41.1,33.1,30.04,North,354,0.0,0.0,73,0.00,,,0.00,Wunderground v.1.15,2013-01-21 03:42:00,
2013-01-20 22:43:00,41.2,33.5,30.04,North,354,0.0,0.0,74,0.00,,,0.00,Wunderground v.1.15,2013-01-21 03:43:00,
2013-01-20 22:44:00,41.2,33.9,30.04,SSW,207,1.0,1.0,75,0.00,,,0.00,Wunderground v.1.15,2013-01-21 03:44:00,
2013-01-20 22:47:00,40.9,33.6,30.04,SSW,200,1.0,1.0,75,0.00,,,0.00,Wunderground v.1.15,2013-01-21 03:47:00,
2013-01-20 22:48:00,40.7,33.7,30.04,SSW,200,0.0,1.0,76,0.00,,,0.00,Wunderground v.1.15,2013-01-21 03:48:00,
2013-01-20 22:49:00,40.5,33.5,30.04,SSW,200,1.0,1.0,76,0.00,,,0.00,Wunderground v.1.15,2013-01-21 03:49:00,
2013-01-20 22:53:00,40.0,33.7,30.04,SSW,200,1.0,1.0,78,0.00,,,0.00,Wunderground v.1.15,2013-01-21 03:53:00,
2013-01-20 22:54:00,39.9,33.3,30.04,SSW,200,0.0,1.0,77,0.00,,,0.00,Wunderground v.1.15,2013-01-21 03:54:00,
2013-01-20 22:58:00,39.6,33.3,30.05,SSW,200,0.0,1.0,78,0.00,,,0.00,Wunderground v.1.15,2013-01-21 03:58:00,
2013-01-20 22:59:00,39.5,33.2,30.05,SSW,200,0.0,1.0,78,0.00,,,0.00,Wunderground v.1.15,2013-01-21 03:59:00,
2013-01-20 23:03:00,39.4,33.1,30.05,SSW,200,0.0,0.0,78,0.00,,,0.00,Wunderground v.1.15,2013-01-21 04:03:00,
2013-01-20 23:04:00,39.3,33.0,30.05,SSW,200,0.0,0.0,78,0.00,,,0.00,Wunderground v.1.15,2013-01-21 04:04:00,
2013-01-20 23:05:00,39.3,33.0,30.05,SSW,200,0.0,0.0,78,0.00,,,0.00,Wunderground v.1.15,2013-01-21 04:05:00,
2013-01-20 23:08:00,39.2,32.9,30.05,SSW,200,0.0,0.0,78,0.00,,,0.00,Wunderground v.1.15,2013-01-21 04:08:00,
2013-01-20 23:09:00,39.1,32.8,30.05,SSW,200,0.0,0.0,78,0.00,,,0.00,Wunderground v.1.15,2013-01-21 04:09:00,
2013-01-20 23:10:00,39.1,33.1,30.05,SSW,200,0.0,0.0,79,0.00,,,0.00,Wunderground v.1.15,2013-01-21 04:10:00,
2013-01-20 23:13:00,39.0,33.0,30.04,SSW,200,0.0,0.0,79,0.00,,,0.00,Wunderground v.1.15,2013-01-21 04:13:00,
2013-01-20 23:14:00,38.9,32.9,30.04,SSW,200,0.0,0.0,79,0.00,,,0.00,Wunderground v.1.15,2013-01-21 04:14:00,
2013-01-20 23:15:00,38.9,32.9,30.04,SSW,200,0.0,0.0,79,0.00,,,0.00,Wunderground v.1.15,2013-01-21 04:15:00,
2013-01-20 23:18:00,38.8,32.8,30.04,SSW,200,0.0,0.0,79,0.00,,,0.00,Wunderground v.1.15,2013-01-21 04:18:00,
2013-01-20 23:20:00,38.7,32.7,30.04,SSW,199,0.0,0.0,79,0.00,,,0.00,Wunderground v.1.15,2013-01-21 04:20:00,
2013-01-20 23:23:00,38.8,31.9,30.04,SSW,200,0.0,0.0,76,0.00,,,0.00,Wunderground v.1.15,2013-01-21 04:23:00,
2013-01-20 23:25:00,38.9,32.3,30.04,SSW,200,0.0,0.0,77,0.00,,,0.00,Wunderground v.1.15,2013-01-21 04:25:00,
2013-01-20 23:26:00,39.0,32.4,30.04,SSW,200,0.0,0.0,77,0.00,,,0.00,Wunderground v.1.15,2013-01-21 04:26:00,
2013-01-20 23:28:00,39.1,32.5,30.04,SSW,200,1.0,1.0,77,0.00,,,0.00,Wunderground v.1.15,2013-01-21 04:28:00,
2013-01-20 23:29:00,39.1,32.5,30.04,SSW,200,1.0,1.0,77,0.00,,,0.00,Wunderground v.1.15,2013-01-21 04:29:00,
2013-01-20 23:30:00,39.1,32.8,30.04,SSW,200,0.0,0.0,78,0.00,,,0.00,Wunderground v.1.15,2013-01-21 04:30:00,
2013-01-20 23:31:00,39.1,32.8,30.04,SSW,200,0.0,0.0,78,0.00,,,0.00,Wunderground v.1.15,2013-01-21 04:31:00,
2013-01-20 23:33:00,39.0,32.7,30.04,SSW,200,0.0,0.0,78,0.00,,,0.00,Wunderground v.1.15,2013-01-21 04:33:00,
2013-01-20 23:34:00,39.1,32.8,30.04,SSW,200,0.0,0.0,78,0.00,,,0.00,Wunderground v.1.15,2013-01-21 04:34:00,
2013-01-20 23:35:00,39.0,32.7,30.04,SSW,200,0.0,0.0,78,0.00,,,0.00,Wunderground v.1.15,2013-01-21 04:35:00,
2013-01-20 23:36:00,39.0,32.7,30.04,SSW,200,0.0,0.0,78,0.00,,,0.00,Wunderground v.1.15,2013-01-21 04:36:00,
2013-01-20 23:38:00,38.9,32.3,30.04,SSW,200,0.0,0.0,77,0.00,,,0.00,Wunderground v.1.15,2013-01-21 04:38:00,
2013-01-20 23:39:00,38.9,32.3,30.04,SSW,200,0.0,0.0,77,0.00,,,0.00,Wunderground v.1.15,2013-01-21 04:39:00,
2013-01-20 23:40:00,38.9,32.3,30.04,SSW,200,0.0,0.0,77,0.00,,,0.00,Wunderground v.1.15,2013-01-21 04:40:00,
2013-01-20 23:41:00,38.9,32.3,30.04,SSW,200,0.0,0.0,77,0.00,,,0.00,Wunderground v.1.15,2013-01-21 04:41:00,
2013-01-20 23:43:00,38.8,32.2,30.04,SSW,200,0.0,0.0,77,0.00,,,0.00,Wunderground v.1.15,2013-01-21 04:43:00,
2013-01-20 23:44:00,38.8,32.2,30.04,SSW,200,0.0,0.0,77,0.00,,,0.00,Wunderground v.1.15,2013-01-21 04:44:00,
2013-01-20 23:45:00,38.7,32.4,30.04,SSW,200,0.0,0.0,78,0.00,,,0.00,Wunderground v.1.15,2013-01-21 04:45:00,
2013-01-20 23:47:00,38.6,32.3,30.04,SSW,200,0.0,0.0,78,0.00,,,0.00,Wunderground v.1.15,2013-01-21 04:47:00,
2013-01-20 23:49:00,38.6,32.3,30.04,SSW,200,0.0,0.0,78,0.00,,,0.00,Wunderground v.1.15,2013-01-21 04:49:00,
2013-01-20 23:51:00,38.5,32.6,30.04,SSW,200,0.0,0.0,79,0.00,,,0.00,Wunderground v.1.15,2013-01-21 04:51:00,
2013-01-20 23:52:00,38.4,32.5,30.04,SSW,200,0.0,0.0,79,0.00,,,0.00,Wunderground v.1.15,2013-01-21 04:52:00,
2013-01-20 23:54:00,38.4,32.5,30.04,SSW,200,0.0,0.0,79,0.00,,,0.00,Wunderground v.1.15,2013-01-21 04:54:00,
2013-01-20 23:56:00,38.3,32.4,30.04,SSW,200,0.0,0.0,79,0.00,,,0.00,Wunderground v.1.15,2013-01-21 04:56:00,
2013-01-20 23:58:00,38.3,31.7,30.04,SSW,200,1.0,1.0,77,0.00,,,0.00,Wunderground v.1.15,2013-01-21 04:58:00,
2013-01-20 23:59:00,38.4,32.1,30.04,SSW,200,0.0,1.0,78,0.00,,,0.00,Wunderground v.1.15,2013-01-21 04:59:00,